Wetterdaten: Montag, 22.04.2013
Datum Zeit Temp. Aussen +5cm Feuchte Auss Luftdruck Regen Sonnenschein Regendauer UV Solar Windben
22.04.2013 00:00 10,4 C 8,4 C 74 % 1016,4 hPa 0,0 l/m 0 min 0 min 0,0 UV-I 0 W/m 0,0 km/h (0 Bft)
22.04.2013 00:02 10,4 C 9,0 C 74 % 1016,5 hPa 0,0 l/m 0 min 0 min 0,0 UV-I 0 W/m 10,3 km/h (2 Bft)
22.04.2013 00:06 10,4 C 9,0 C 74 % 1016,5 hPa 0,0 l/m 0 min 0 min 0,0 UV-I 0 W/m 7,7 km/h (2 Bft)
22.04.2013 00:08 10,3 C 9,0 C 74 % 1016,6 hPa 0,0 l/m 0 min 0 min 0,0 UV-I 0 W/m 2,6 km/h (1 Bft)
22.04.2013 00:10 10,3 C 9,0 C 73 % 1016,5 hPa 0,0 l/m 0 min 0 min 0,0 UV-I 0 W/m 5,1 km/h (1 Bft)
22.04.2013 00:12 10,3 C 9,0 C 72 % 1016,5 hPa 0,0 l/m 0 min 0 min 0,0 UV-I 0 W/m 10,3 km/h (2 Bft)
22.04.2013 00:14 10,3 C 9,0 C 72 % 1016,5 hPa 0,0 l/m 0 min 0 min 0,0 UV-I 0 W/m 5,1 km/h (1 Bft)
22.04.2013 00:16 10,3 C 9,0 C 72 % 1016,5 hPa 0,0 l/m 0 min 0 min 0,0 UV-I 0 W/m 7,7 km/h (2 Bft)
22.04.2013 00:18 10,2 C 9,0 C 72 % 1016,6 hPa 0,0 l/m 0 min 0 min 0,0 UV-I 0 W/m 7,7 km/h (2 Bft)
22.04.2013 00:20 10,2 C 9,0 C 72 % 1016,6 hPa 0,0 l/m 0 min 0 min 0,0 UV-I 0 W/m 7,7 km/h (2 Bft)
22.04.2013 00:22 10,2 C 9,0 C 73 % 1016,6 hPa 0,0 l/m 0 min 0 min 0,0 UV-I 0 W/m 15,4 km/h (3 Bft)
22.04.2013 00:24 10,2 C 8,4 C 73 % 1016,6 hPa 0,0 l/m 0 min 0 min 0,0 UV-I 0 W/m 5,1 km/h (1 Bft)
22.04.2013 00:26 10,2 C 8,4 C 73 % 1016,6 hPa 0,0 l/m 0 min 0 min 0,0 UV-I 0 W/m 10,3 km/h (2 Bft)
22.04.2013 00:28 10,1 C 8,4 C 73 % 1016,6 hPa 0,0 l/m 0 min 0 min 0,0 UV-I 0 W/m 10,3 km/h (2 Bft)
22.04.2013 00:30 10,1 C 8,4 C 73 % 1016,6 hPa 0,0 l/m 0 min 0 min 0,0 UV-I 0 W/m 20,6 km/h (4 Bft)
22.04.2013 00:32 10,0 C 8,4 C 73 % 1016,6 hPa 0,0 l/m 0 min 0 min 0,0 UV-I 0 W/m 5,1 km/h (1 Bft)
22.04.2013 00:34 9,9 C 8,4 C 73 % 1016,6 hPa 0,0 l/m 0 min 0 min 0,0 UV-I 0 W/m 7,7 km/h (2 Bft)
22.04.2013 00:36 9,9 C 8,4 C 72 % 1016,7 hPa 0,0 l/m 0 min 0 min 0,0 UV-I 0 W/m 10,3 km/h (2 Bft)
22.04.2013 00:38 9,9 C 8,4 C 72 % 1016,7 hPa 0,0 l/m 0 min 0 min 0,0 UV-I 0 W/m 0,0 km/h (0 Bft)
22.04.2013 00:40 9,8 C 8,4 C 72 % 1016,7 hPa 0,0 l/m 0 min 0 min 0,0 UV-I 0 W/m 15,4 km/h (3 Bft)
22.04.2013 00:42 9,8 C 8,4 C 72 % 1016,6 hPa 0,0 l/m 0 min 0 min 0,0 UV-I 0 W/m 10,3 km/h (2 Bft)
22.04.2013 00:44 9,8 C 8,4 C 72 % 1016,7 hPa 0,0 l/m 0 min 0 min 0,0 UV-I 0 W/m 5,1 km/h (1 Bft)
22.04.2013 00:46 9,7 C 8,4 C 72 % 1016,7 hPa 0,0 l/m 0 min 0 min 0,0 UV-I 0 W/m 0,0 km/h (0 Bft)
22.04.2013 00:48 9,7 C 8,4 C 72 % 1016,7 hPa 0,0 l/m 0 min 0 min 0,0 UV-I 0 W/m 2,6 km/h (1 Bft)
22.04.2013 00:50 9,7 C 8,4 C 72 % 1016,6 hPa 0,0 l/m 0 min 0 min 0,0 UV-I 0 W/m 15,4 km/h (3 Bft)
22.04.2013 00:52 9,6 C 8,4 C 72 % 1016,6 hPa 0,0 l/m 0 min 0 min 0,0 UV-I 0 W/m 0,0 km/h (0 Bft)
22.04.2013 00:54 9,6 C 7,9 C 72 % 1016,7 hPa 0,0 l/m 0 min 0 min 0,0 UV-I 0 W/m 0,0 km/h (0 Bft)
22.04.2013 00:56 9,6 C 7,9 C 72 % 1016,7 hPa 0,0 l/m 0 min 0 min 0,0 UV-I 0 W/m 0,0 km/h (0 Bft)
22.04.2013 00:58 9,6 C 7,9 C 72 % 1016,6 hPa 0,0 l/m 0 min 0 min 0,0 UV-I 0 W/m 0,0 km/h (0 Bft)
22.04.2013 01:00 9,5 C 7,9 C 72 % 1016,7 hPa 0,0 l/m 0 min 0 min 0,0 UV-I 0 W/m 12,9 km/h (3 Bft)
22.04.2013 01:02 9,4 C 7,9 C 71 % 1016,7 hPa 0,0 l/m 0 min 0 min 0,0 UV-I 0 W/m 5,1 km/h (1 Bft)
22.04.2013 01:04 9,4 C 7,9 C 72 % 1016,6 hPa 0,0 l/m 0 min 0 min 0,0 UV-I 0 W/m 2,6 km/h (1 Bft)
22.04.2013 01:06 9,4 C 7,9 C 72 % 1016,6 hPa 0,0 l/m 0 min 0 min 0,0 UV-I 0 W/m 5,1 km/h (1 Bft)
22.04.2013 01:08 9,4 C 7,9 C 72 % 1016,6 hPa 0,0 l/m 0 min 0 min 0,0 UV-I 0 W/m 2,6 km/h (1 Bft)
22.04.2013 01:10 9,3 C 7,9 C 72 % 1016,6 hPa 0,0 l/m 0 min 0 min 0,0 UV-I 0 W/m 5,1 km/h (1 Bft)
22.04.2013 01:12 9,3 C 7,9 C 72 % 1016,7 hPa 0,0 l/m 0 min 0 min 0,0 UV-I 0 W/m 5,1 km/h (1 Bft)
22.04.2013 01:14 9,3 C 7,9 C 72 % 1016,7 hPa 0,0 l/m 0 min 0 min 0,0 UV-I 0 W/m 7,7 km/h (2 Bft)
22.04.2013 01:16 9,3 C 7,9 C 72 % 1016,7 hPa 0,0 l/m 0 min 0 min 0,0 UV-I 0 W/m 0,0 km/h (0 Bft)
22.04.2013 01:18 9,3 C 7,9 C 72 % 1016,7 hPa 0,0 l/m 0 min 0 min 0,0 UV-I 0 W/m 5,1 km/h (1 Bft)
22.04.2013 01:20 9,2 C 7,9 C 72 % 1016,7 hPa 0,0 l/m 0 min 0 min 0,0 UV-I 0 W/m 5,1 km/h (1 Bft)
22.04.2013 01:22 9,2 C 7,9 C 72 % 1016,7 hPa 0,0 l/m 0 min 0 min 0,0 UV-I 0 W/m 0,0 km/h (0 Bft)
22.04.2013 01:24 9,2 C 7,9 C 72 % 1016,7 hPa 0,0 l/m 0 min 0 min 0,0 UV-I 0 W/m 0,0 km/h (0 Bft)
22.04.2013 01:26 9,2 C 7,9 C 72 % 1016,6 hPa 0,0 l/m 0 min 0 min 0,0 UV-I 0 W/m 5,1 km/h (1 Bft)
22.04.2013 01:28 9,2 C 7,9 C 72 % 1016,6 hPa 0,0 l/m 0 min 0 min 0,0 UV-I 0 W/m 5,1 km/h (1 Bft)
22.04.2013 01:30 9,2 C 7,9 C 72 % 1016,7 hPa 0,0 l/m 0 min 0 min 0,0 UV-I 0 W/m 2,6 km/h (1 Bft)
22.04.2013 01:32 9,1 C 7,9 C 72 % 1016,6 hPa 0,0 l/m 0 min 0 min 0,0 UV-I 0 W/m 0,0 km/h (0 Bft)
22.04.2013 01:34 9,1 C 7,9 C 73 % 1016,6 hPa 0,0 l/m 0 min 0 min 0,0 UV-I 0 W/m 10,3 km/h (2 Bft)
22.04.2013 01:36 9,1 C 7,9 C 73 % 1016,6 hPa 0,0 l/m 0 min 0 min 0,0 UV-I 0 W/m 0,0 km/h (0 Bft)
22.04.2013 01:38 9,1 C 7,9 C 73 % 1016,6 hPa 0,0 l/m 0 min 0 min 0,0 UV-I 0 W/m 10,3 km/h (2 Bft)
22.04.2013 01:40 9,1 C 7,9 C 73 % 1016,7 hPa 0,0 l/m 0 min 0 min 0,0 UV-I 0 W/m 7,7 km/h (2 Bft)
22.04.2013 01:42 9,1 C 7,9 C 73 % 1016,6 hPa 0,0 l/m 0 min 0 min 0,0 UV-I 0 W/m 0,0 km/h (0 Bft)
22.04.2013 01:44 9,1 C 7,9 C 73 % 1016,7 hPa 0,0 l/m 0 min 0 min 0,0 UV-I 0 W/m 0,0 km/h (0 Bft)
22.04.2013 01:46 9,0 C 7,9 C 73 % 1016,6 hPa 0,0 l/m 0 min 0 min 0,0 UV-I 0 W/m 0,0 km/h (0 Bft)
22.04.2013 01:48 9,0 C 7,3 C 73 % 1016,7 hPa 0,0 l/m 0 min 0 min 0,0 UV-I 0 W/m 2,6 km/h (1 Bft)
22.04.2013 01:50 9,0 C 7,3 C 76 % 1016,7 hPa 0,0 l/m 0 min 0 min 0,0 UV-I 0 W/m 2,6 km/h (1 Bft)
22.04.2013 01:52 9,0 C 7,3 C 73 % 1016,7 hPa 0,0 l/m 0 min 0 min 0,0 UV-I 0 W/m 0,0 km/h (0 Bft)
22.04.2013 01:54 8,9 C 7,3 C 73 % 1016,6 hPa 0,0 l/m 0 min 0 min 0,0 UV-I 0 W/m 0,0 km/h (0 Bft)
22.04.2013 01:56 8,9 C 7,3 C 73 % 1016,6 hPa 0,0 l/m 0 min 0 min 0,0 UV-I 0 W/m 0,0 km/h (0 Bft)
22.04.2013 01:58 8,9 C 7,3 C 73 % 1016,6 hPa 0,0 l/m 0 min 0 min 0,0 UV-I 0 W/m 0,0 km/h (0 Bft)
22.04.2013 02:00 8,9 C 7,3 C 73 % 1016,6 hPa 0,0 l/m 0 min 0 min 0,0 UV-I 0 W/m 0,0 km/h (0 Bft)
22.04.2013 02:02 8,9 C 7,3 C 73 % 1016,5 hPa 0,0 l/m 0 min 0 min 0,0 UV-I 0 W/m 0,0 km/h (0 Bft)
22.04.2013 02:04 8,9 C 7,3 C 74 % 1016,6 hPa 0,0 l/m 0 min 0 min 0,0 UV-I 0 W/m 0,0 km/h (0 Bft)
22.04.2013 02:06 8,9 C 7,3 C 74 % 1016,6 hPa 0,0 l/m 0 min 0 min 0,0 UV-I 0 W/m 0,0 km/h (0 Bft)
22.04.2013 02:08 8,9 C 7,3 C 74 % 1016,5 hPa 0,0 l/m 0 min 0 min 0,0 UV-I 0 W/m 0,0 km/h (0 Bft)
22.04.2013 02:10 8,9 C 7,3 C 74 % 1016,5 hPa 0,0 l/m 0 min 0 min 0,0 UV-I 0 W/m 0,0 km/h (0 Bft)
22.04.2013 02:12 8,9 C 7,3 C 74 % 1016,5 hPa 0,0 l/m 0 min 0 min 0,0 UV-I 0 W/m 0,0 km/h (0 Bft)
22.04.2013 02:14 8,8 C 7,3 C 74 % 1016,5 hPa 0,0 l/m 0 min 0 min 0,0 UV-I 0 W/m 0,0 km/h (0 Bft)
22.04.2013 02:16 8,8 C 7,3 C 74 % 1016,4 hPa 0,0 l/m 0 min 0 min 0,0 UV-I 0 W/m 0,0 km/h (0 Bft)
22.04.2013 02:18 8,8 C 7,3 C 74 % 1016,4 hPa 0,0 l/m 0 min 0 min 0,0 UV-I 0 W/m 0,0 km/h (0 Bft)
22.04.2013 02:20 8,8 C 7,3 C 74 % 1016,4 hPa 0,0 l/m 0 min 0 min 0,0 UV-I 0 W/m 0,0 km/h (0 Bft)
22.04.2013 02:22 8,8 C 7,3 C 74 % 1016,4 hPa 0,0 l/m 0 min 0 min 0,0 UV-I 0 W/m 0,0 km/h (0 Bft)
22.04.2013 02:24 8,8 C 7,3 C 74 % 1016,5 hPa 0,0 l/m 0 min 0 min 0,0 UV-I 0 W/m 0,0 km/h (0 Bft)
22.04.2013 02:26 8,8 C 7,3 C 74 % 1016,5 hPa 0,0 l/m 0 min 0 min 0,0 UV-I 0 W/m 0,0 km/h (0 Bft)
22.04.2013 02:28 8,8 C 7,3 C 74 % 1016,5 hPa 0,0 l/m 0 min 0 min 0,0 UV-I 0 W/m 0,0 km/h (0 Bft)
22.04.2013 02:30 8,8 C 7,3 C 74 % 1016,4 hPa 0,0 l/m 0 min 0 min 0,0 UV-I 0 W/m 0,0 km/h (0 Bft)
22.04.2013 02:32 8,8 C 6,8 C 74 % 1016,4 hPa 0,0 l/m 0 min 0 min 0,0 UV-I 0 W/m 0,0 km/h (0 Bft)
22.04.2013 02:34 8,7 C 6,8 C 74 % 1016,4 hPa 0,0 l/m 0 min 0 min 0,0 UV-I 0 W/m 0,0 km/h (0 Bft)
22.04.2013 02:36 8,7 C 6,8 C 74 % 1016,5 hPa 0,0 l/m 0 min 0 min 0,0 UV-I 0 W/m 0,0 km/h (0 Bft)
22.04.2013 02:38 8,7 C 6,8 C 74 % 1016,5 hPa 0,0 l/m 0 min 0 min 0,0 UV-I 0 W/m 0,0 km/h (0 Bft)
22.04.2013 02:40 8,7 C 6,8 C 75 % 1016,5 hPa 0,0 l/m 0 min 0 min 0,0 UV-I 0 W/m 0,0 km/h (0 Bft)
22.04.2013 02:42 8,7 C 6,8 C 75 % 1016,5 hPa 0,0 l/m 0 min 0 min 0,0 UV-I 0 W/m 0,0 km/h (0 Bft)
22.04.2013 02:44 8,7 C 6,8 C 75 % 1016,4 hPa 0,0 l/m 0 min 0 min 0,0 UV-I 0 W/m 0,0 km/h (0 Bft)
22.04.2013 02:46 8,7 C 6,8 C 75 % 1016,5 hPa 0,0 l/m 0 min 0 min 0,0 UV-I 0 W/m 0,0 km/h (0 Bft)
22.04.2013 02:48 8,7 C 6,8 C 75 % 1016,4 hPa 0,0 l/m 0 min 0 min 0,0 UV-I 0 W/m 0,0 km/h (0 Bft)
22.04.2013 02:50 8,6 C 6,8 C 75 % 1016,5 hPa 0,0 l/m 0 min 0 min 0,0 UV-I 0 W/m 0,0 km/h (0 Bft)
22.04.2013 02:52 8,6 C 6,8 C 75 % 1016,4 hPa 0,0 l/m 0 min 0 min 0,0 UV-I 0 W/m 0,0 km/h (0 Bft)
22.04.2013 02:54 8,6 C 6,8 C 75 % 1016,5 hPa 0,0 l/m 0 min 0 min 0,0 UV-I 0 W/m 0,0 km/h (0 Bft)
22.04.2013 02:56 8,6 C 6,8 C 75 % 1016,5 hPa 0,0 l/m 0 min 0 min 0,0 UV-I 0 W/m 0,0 km/h (0 Bft)
22.04.2013 02:58 8,6 C 6,8 C 75 % 1016,5 hPa 0,0 l/m 0 min 0 min 0,0 UV-I 0 W/m 0,0 km/h (0 Bft)
22.04.2013 03:00 8,6 C 6,8 C 75 % 1016,4 hPa 0,0 l/m 0 min 0 min 0,0 UV-I 0 W/m 0,0 km/h (0 Bft)
22.04.2013 03:02 8,6 C 6,8 C 75 % 1016,4 hPa 0,0 l/m 0 min 0 min 0,0 UV-I 0 W/m 0,0 km/h (0 Bft)
22.04.2013 03:04 8,5 C 6,8 C 75 % 1016,4 hPa 0,0 l/m 0 min 0 min 0,0 UV-I 0 W/m 0,0 km/h (0 Bft)
22.04.2013 03:06 8,5 C 6,8 C 75 % 1016,4 hPa 0,0 l/m 0 min 0 min 0,0 UV-I 0 W/m 0,0 km/h (0 Bft)
22.04.2013 03:08 8,5 C 6,8 C 75 % 1016,3 hPa 0,0 l/m 0 min 0 min 0,0 UV-I 0 W/m 0,0 km/h (0 Bft)
22.04.2013 03:10 8,5 C 6,8 C 75 % 1016,4 hPa 0,0 l/m 0 min 0 min 0,0 UV-I 0 W/m 0,0 km/h (0 Bft)
22.04.2013 03:12 8,4 C 6,8 C 75 % 1016,4 hPa 0,0 l/m 0 min 0 min 0,0 UV-I 0 W/m 0,0 km/h (0 Bft)
22.04.2013 03:14 8,4 C 6,8 C 75 % 1016,4 hPa 0,0 l/m 0 min 0 min 0,0 UV-I 0 W/m 0,0 km/h (0 Bft)
22.04.2013 03:16 8,4 C 6,8 C 75 % 1016,4 hPa 0,0 l/m 0 min 0 min 0,0 UV-I 0 W/m 0,0 km/h (0 Bft)
22.04.2013 03:18 8,4 C 6,8 C 75 % 1016,4 hPa 0,0 l/m 0 min 0 min 0,0 UV-I 0 W/m 0,0 km/h (0 Bft)
22.04.2013 03:20 8,4 C 6,8 C 76 % 1016,4 hPa 0,0 l/m 0 min 0 min 0,0 UV-I 0 W/m 0,0 km/h (0 Bft)
22.04.2013 03:22 8,4 C 6,8 C 76 % 1016,4 hPa 0,0 l/m 0 min 0 min 0,0 UV-I 0 W/m 0,0 km/h (0 Bft)
22.04.2013 03:24 8,4 C 6,8 C 76 % 1016,4 hPa 0,0 l/m 0 min 0 min 0,0 UV-I 0 W/m 0,0 km/h (0 Bft)
22.04.2013 03:26 8,4 C 6,8 C 76 % 1016,4 hPa 0,0 l/m 0 min 0 min 0,0 UV-I 0 W/m 0,0 km/h (0 Bft)
22.04.2013 03:28 8,3 C 6,8 C 76 % 1016,3 hPa 0,0 l/m 0 min 0 min 0,0 UV-I 0 W/m 0,0 km/h (0 Bft)
22.04.2013 03:30 8,3 C 6,8 C 76 % 1016,4 hPa 0,0 l/m 0 min 0 min 0,0 UV-I 0 W/m 0,0 km/h (0 Bft)
22.04.2013 03:32 8,3 C 6,8 C 76 % 1016,5 hPa 0,0 l/m 0 min 0 min 0,0 UV-I 0 W/m 2,6 km/h (1 Bft)
22.04.2013 03:34 8,3 C 6,8 C 76 % 1016,4 hPa 0,0 l/m 0 min 0 min 0,0 UV-I 0 W/m 0,0 km/h (0 Bft)
22.04.2013 03:36 8,3 C 6,8 C 76 % 1016,4 hPa 0,0 l/m 0 min 0 min 0,0 UV-I 0 W/m 0,0 km/h (0 Bft)
22.04.2013 03:38 8,3 C 6,8 C 76 % 1016,4 hPa 0,0 l/m 0 min 0 min 0,0 UV-I 0 W/m 0,0 km/h (0 Bft)
22.04.2013 03:40 8,3 C 6,8 C 76 % 1016,4 hPa 0,0 l/m 0 min 0 min 0,0 UV-I 0 W/m 0,0 km/h (0 Bft)
22.04.2013 03:42 8,3 C 6,8 C 76 % 1016,4 hPa 0,0 l/m 0 min 0 min 0,0 UV-I 0 W/m 0,0 km/h (0 Bft)
22.04.2013 03:44 8,3 C 6,8 C 76 % 1016,4 hPa 0,0 l/m 0 min 0 min 0,0 UV-I 0 W/m 0,0 km/h (0 Bft)
22.04.2013 03:46 8,3 C 6,8 C 76 % 1016,4 hPa 0,0 l/m 0 min 0 min 0,0 UV-I 0 W/m 0,0 km/h (0 Bft)
22.04.2013 03:48 8,2 C 6,8 C 76 % 1016,5 hPa 0,0 l/m 0 min 0 min 0,0 UV-I 0 W/m 0,0 km/h (0 Bft)
22.04.2013 03:50 8,2 C 6,8 C 76 % 1016,5 hPa 0,0 l/m 0 min 0 min 0,0 UV-I 0 W/m 0,0 km/h (0 Bft)
22.04.2013 03:52 8,2 C 6,2 C 76 % 1016,5 hPa 0,0 l/m 0 min 0 min 0,0 UV-I 0 W/m 0,0 km/h (0 Bft)
22.04.2013 03:54 8,2 C 6,2 C 76 % 1016,4 hPa 0,0 l/m 0 min 0 min 0,0 UV-I 0 W/m 0,0 km/h (0 Bft)
22.04.2013 03:56 8,2 C 6,2 C 76 % 1016,4 hPa 0,0 l/m 0 min 0 min 0,0 UV-I 0 W/m 0,0 km/h (0 Bft)
22.04.2013 03:58 8,2 C 6,2 C 76 % 1016,5 hPa 0,0 l/m 0 min 0 min 0,0 UV-I 0 W/m 0,0 km/h (0 Bft)
22.04.2013 04:00 8,2 C 6,2 C 76 % 1016,5 hPa 0,0 l/m 0 min 0 min 0,0 UV-I 0 W/m 0,0 km/h (0 Bft)
22.04.2013 04:02 8,2 C 6,2 C 76 % 1016,4 hPa 0,0 l/m 0 min 0 min 0,0 UV-I 0 W/m 0,0 km/h (0 Bft)
22.04.2013 04:04 8,2 C 6,2 C 76 % 1016,4 hPa 0,0 l/m 0 min 0 min 0,0 UV-I 0 W/m 0,0 km/h (0 Bft)
22.04.2013 04:06 8,1 C 6,2 C 76 % 1016,4 hPa 0,0 l/m 0 min 0 min 0,0 UV-I 0 W/m 0,0 km/h (0 Bft)
22.04.2013 04:08 8,1 C 6,2 C 76 % 1016,5 hPa 0,0 l/m 0 min 0 min 0,0 UV-I 0 W/m 0,0 km/h (0 Bft)
22.04.2013 04:10 8,1 C 6,2 C 76 % 1016,4 hPa 0,0 l/m 0 min 0 min 0,0 UV-I 0 W/m 0,0 km/h (0 Bft)
22.04.2013 04:12 8,1 C 6,2 C 76 % 1016,5 hPa 0,0 l/m 0 min 0 min 0,0 UV-I 0 W/m 0,0 km/h (0 Bft)
22.04.2013 04:14 8,1 C 6,8 C 76 % 1016,4 hPa 0,0 l/m 0 min 0 min 0,0 UV-I 0 W/m 0,0 km/h (0 Bft)
22.04.2013 04:16 8,1 C 6,8 C 76 % 1016,4 hPa 0,0 l/m 0 min 0 min 0,0 UV-I 0 W/m 0,0 km/h (0 Bft)
22.04.2013 04:18 8,0 C 6,2 C 75 % 1016,4 hPa 0,0 l/m 0 min 0 min 0,0 UV-I 0 W/m 0,0 km/h (0 Bft)
22.04.2013 04:20 8,0 C 6,2 C 75 % 1016,4 hPa 0,0 l/m 0 min 0 min 0,0 UV-I 0 W/m 0,0 km/h (0 Bft)
22.04.2013 04:22 8,0 C 6,8 C 75 % 1016,4 hPa 0,0 l/m 0 min 0 min 0,0 UV-I 0 W/m 0,0 km/h (0 Bft)
22.04.2013 04:24 7,9 C 6,8 C 75 % 1016,4 hPa 0,0 l/m 0 min 0 min 0,0 UV-I 0 W/m 0,0 km/h (0 Bft)
22.04.2013 04:26 7,9 C 6,8 C 75 % 1016,4 hPa 0,0 l/m 0 min 0 min 0,0 UV-I 0 W/m 0,0 km/h (0 Bft)
22.04.2013 04:28 7,9 C 6,8 C 75 % 1016,4 hPa 0,0 l/m 0 min 0 min 0,0 UV-I 0 W/m 0,0 km/h (0 Bft)
22.04.2013 04:30 7,9 C 6,2 C 75 % 1016,4 hPa 0,0 l/m 0 min 0 min 0,0 UV-I 0 W/m 0,0 km/h (0 Bft)
22.04.2013 04:32 7,9 C 6,2 C 75 % 1016,4 hPa 0,0 l/m 0 min 0 min 0,0 UV-I 0 W/m 0,0 km/h (0 Bft)
22.04.2013 04:34 7,9 C 6,2 C 75 % 1016,3 hPa 0,0 l/m 0 min 0 min 0,0 UV-I 0 W/m 0,0 km/h (0 Bft)
22.04.2013 04:36 7,9 C 6,2 C 75 % 1016,4 hPa 0,0 l/m 0 min 0 min 0,0 UV-I 0 W/m 0,0 km/h (0 Bft)
22.04.2013 04:38 7,8 C 6,2 C 74 % 1016,3 hPa 0,0 l/m 0 min 0 min 0,0 UV-I 0 W/m 0,0 km/h (0 Bft)
22.04.2013 04:40 7,8 C 6,2 C 74 % 1016,4 hPa 0,0 l/m 0 min 0 min 0,0 UV-I 0 W/m 0,0 km/h (0 Bft)
22.04.2013 04:42 7,8 C 6,2 C 74 % 1016,4 hPa 0,0 l/m 0 min 0 min 0,0 UV-I 0 W/m 0,0 km/h (0 Bft)
22.04.2013 04:44 7,8 C 6,2 C 74 % 1016,4 hPa 0,0 l/m 0 min 0 min 0,0 UV-I 0 W/m 0,0 km/h (0 Bft)
22.04.2013 04:46 7,8 C 6,2 C 74 % 1016,4 hPa 0,0 l/m 0 min 0 min 0,0 UV-I 0 W/m 0,0 km/h (0 Bft)
22.04.2013 04:48 7,8 C 6,2 C 73 % 1016,3 hPa 0,0 l/m 0 min 0 min 0,0 UV-I 0 W/m 0,0 km/h (0 Bft)
22.04.2013 04:50 7,8 C 6,2 C 73 % 1016,4 hPa 0,0 l/m 0 min 0 min 0,0 UV-I 0 W/m 0,0 km/h (0 Bft)
22.04.2013 04:52 7,8 C 6,2 C 73 % 1016,4 hPa 0,0 l/m 0 min 0 min 0,0 UV-I 0 W/m 0,0 km/h (0 Bft)
22.04.2013 04:54 7,8 C 5,7 C 73 % 1016,4 hPa 0,0 l/m 0 min 0 min 0,0 UV-I 0 W/m 0,0 km/h (0 Bft)
22.04.2013 04:56 7,7 C 5,7 C 73 % 1016,4 hPa 0,0 l/m 0 min 0 min 0,0 UV-I 0 W/m 0,0 km/h (0 Bft)
22.04.2013 04:58 7,7 C 5,7 C 73 % 1016,4 hPa 0,0 l/m 0 min 0 min 0,0 UV-I 0 W/m 0,0 km/h (0 Bft)
22.04.2013 05:00 7,7 C 5,7 C 73 % 1016,5 hPa 0,0 l/m 0 min 0 min 0,0 UV-I 0 W/m 0,0 km/h (0 Bft)
22.04.2013 05:02 7,7 C 5,7 C 73 % 1016,4 hPa 0,0 l/m 0 min 0 min 0,0 UV-I 0 W/m 0,0 km/h (0 Bft)
22.04.2013 05:04 7,7 C 5,7 C 73 % 1016,4 hPa 0,0 l/m 0 min 0 min 0,0 UV-I 0 W/m 0,0 km/h (0 Bft)
22.04.2013 05:06 7,6 C 5,7 C 73 % 1016,4 hPa 0,0 l/m 0 min 0 min 0,0 UV-I 0 W/m 0,0 km/h (0 Bft)
22.04.2013 05:08 7,6 C 5,7 C 73 % 1016,5 hPa 0,0 l/m 0 min 0 min 0,0 UV-I 0 W/m 0,0 km/h (0 Bft)
22.04.2013 05:10 7,6 C 5,7 C 73 % 1016,5 hPa 0,0 l/m 0 min 0 min 0,0 UV-I 0 W/m 0,0 km/h (0 Bft)
22.04.2013 05:12 7,5 C 5,7 C 73 % 1016,5 hPa 0,0 l/m 0 min 0 min 0,0 UV-I 0 W/m 0,0 km/h (0 Bft)
22.04.2013 05:14 7,5 C 5,7 C 73 % 1016,5 hPa 0,0 l/m 0 min 0 min 0,0 UV-I 0 W/m 0,0 km/h (0 Bft)
22.04.2013 05:16 7,4 C 5,7 C 73 % 1016,6 hPa 0,0 l/m 0 min 0 min 0,0 UV-I 0 W/m 0,0 km/h (0 Bft)
22.04.2013 05:18 7,4 C 5,7 C 73 % 1016,5 hPa 0,0 l/m 0 min 0 min 0,0 UV-I 0 W/m 0,0 km/h (0 Bft)
22.04.2013 05:20 7,4 C 5,1 C 73 % 1016,5 hPa 0,0 l/m 0 min 0 min 0,0 UV-I 0 W/m 0,0 km/h (0 Bft)
22.04.2013 05:22 7,3 C 5,1 C 73 % 1016,4 hPa 0,0 l/m 0 min 0 min 0,0 UV-I 0 W/m 0,0 km/h (0 Bft)
22.04.2013 05:24 7,3 C 5,1 C 73 % 1016,6 hPa 0,0 l/m 0 min 0 min 0,0 UV-I 0 W/m 0,0 km/h (0 Bft)
22.04.2013 05:26 7,3 C 5,1 C 73 % 1016,6 hPa 0,0 l/m 0 min 0 min 0,0 UV-I 0 W/m 0,0 km/h (0 Bft)
22.04.2013 05:28 7,2 C 5,1 C 73 % 1016,6 hPa 0,0 l/m 0 min 0 min 0,0 UV-I 0 W/m 0,0 km/h (0 Bft)
22.04.2013 05:30 7,2 C 5,1 C 73 % 1016,6 hPa 0,0 l/m 0 min 0 min 0,0 UV-I 0 W/m 0,0 km/h (0 Bft)
22.04.2013 05:32 7,2 C 4,6 C 73 % 1016,6 hPa 0,0 l/m 0 min 0 min 0,0 UV-I 0 W/m 0,0 km/h (0 Bft)
22.04.2013 05:34 7,2 C 4,6 C 73 % 1016,6 hPa 0,0 l/m 0 min 0 min 0,0 UV-I 0 W/m 0,0 km/h (0 Bft)
22.04.2013 05:36 7,2 C 4,6 C 73 % 1016,6 hPa 0,0 l/m 0 min 0 min 0,0 UV-I 0 W/m 0,0 km/h (0 Bft)
22.04.2013 05:38 7,1 C 4,6 C 74 % 1016,6 hPa 0,0 l/m 0 min 0 min 0,0 UV-I 0 W/m 0,0 km/h (0 Bft)
22.04.2013 05:40 7,1 C 4,6 C 74 % 1016,7 hPa 0,0 l/m 0 min 0 min 0,0 UV-I 0 W/m 0,0 km/h (0 Bft)
22.04.2013 05:42 7,0 C 4,6 C 74 % 1016,6 hPa 0,0 l/m 0 min 0 min 0,0 UV-I 0 W/m 0,0 km/h (0 Bft)
22.04.2013 05:44 6,9 C 4,0 C 74 % 1016,7 hPa 0,0 l/m 0 min 0 min 0,0 UV-I 0 W/m 0,0 km/h (0 Bft)
22.04.2013 05:46 6,9 C 4,0 C 75 % 1016,7 hPa 0,0 l/m 0 min 0 min 0,0 UV-I 0 W/m 0,0 km/h (0 Bft)
22.04.2013 05:48 6,8 C 4,0 C 74 % 1016,7 hPa 0,0 l/m 0 min 0 min 0,0 UV-I 0 W/m 0,0 km/h (0 Bft)
22.04.2013 05:50 6,8 C 4,0 C 75 % 1016,7 hPa 0,0 l/m 0 min 0 min 0,0 UV-I 0 W/m 0,0 km/h (0 Bft)
22.04.2013 05:52 6,7 C 4,0 C 75 % 1016,6 hPa 0,0 l/m 0 min 0 min 0,0 UV-I 0 W/m 0,0 km/h (0 Bft)
22.04.2013 05:54 6,7 C 3,4 C 75 % 1016,6 hPa 0,0 l/m 0 min 0 min 0,0 UV-I 0 W/m 0,0 km/h (0 Bft)
22.04.2013 05:56 6,7 C 3,4 C 75 % 1016,7 hPa 0,0 l/m 0 min 0 min 0,0 UV-I 0 W/m 0,0 km/h (0 Bft)
22.04.2013 05:58 6,6 C 3,4 C 75 % 1016,7 hPa 0,0 l/m 0 min 0 min 0,0 UV-I 0 W/m 0,0 km/h (0 Bft)
22.04.2013 06:00 6,6 C 3,4 C 75 % 1016,7 hPa 0,0 l/m 0 min 0 min 0,0 UV-I 0 W/m 0,0 km/h (0 Bft)
22.04.2013 06:02 6,5 C 3,4 C 75 % 1016,8 hPa 0,0 l/m 0 min 0 min 0,0 UV-I 0 W/m 0,0 km/h (0 Bft)
22.04.2013 06:04 6,4 C 3,4 C 75 % 1016,8 hPa 0,0 l/m 0 min 0 min 0,0 UV-I 0 W/m 0,0 km/h (0 Bft)
22.04.2013 06:06 6,4 C 3,4 C 75 % 1016,8 hPa 0,0 l/m 0 min 0 min 0,0 UV-I 0 W/m 0,0 km/h (0 Bft)
22.04.2013 06:08 6,3 C 2,9 C 75 % 1016,8 hPa 0,0 l/m 0 min 0 min 0,0 UV-I 0 W/m 0,0 km/h (0 Bft)
22.04.2013 06:10 6,3 C 2,9 C 76 % 1016,9 hPa 0,0 l/m 0 min 0 min 0,0 UV-I 0 W/m 0,0 km/h (0 Bft)
22.04.2013 06:12 6,2 C 2,9 C 76 % 1016,8 hPa 0,0 l/m 0 min 0 min 0,0 UV-I 0 W/m 0,0 km/h (0 Bft)
22.04.2013 06:14 6,2 C 2,9 C 76 % 1016,8 hPa 0,0 l/m 0 min 0 min 0,0 UV-I 0 W/m 0,0 km/h (0 Bft)
22.04.2013 06:16 6,1 C 2,9 C 76 % 1016,9 hPa 0,0 l/m 0 min 0 min 0,0 UV-I 0 W/m 0,0 km/h (0 Bft)
22.04.2013 06:18 6,1 C 2,9 C 76 % 1016,9 hPa 0,0 l/m 0 min 0 min 0,0 UV-I 0 W/m 0,0 km/h (0 Bft)
22.04.2013 06:20 6,0 C 2,9 C 77 % 1016,9 hPa 0,0 l/m 0 min 0 min 0,0 UV-I 0 W/m 0,0 km/h (0 Bft)
22.04.2013 06:22 5,9 C 2,9 C 77 % 1016,9 hPa 0,0 l/m 0 min 0 min 0,0 UV-I 0 W/m 0,0 km/h (0 Bft)
22.04.2013 06:24 5,8 C 2,9 C 77 % 1016,9 hPa 0,0 l/m 0 min 0 min 0,0 UV-I 0 W/m 0,0 km/h (0 Bft)
22.04.2013 06:26 5,8 C 2,9 C 77 % 1017,0 hPa 0,0 l/m 0 min 0 min 0,0 UV-I 0 W/m 0,0 km/h (0 Bft)
22.04.2013 06:28 5,7 C 2,9 C 77 % 1017,0 hPa 0,0 l/m 0 min 0 min 0,0 UV-I 0 W/m 0,0 km/h (0 Bft)
22.04.2013 06:30 5,7 C 2,9 C 78 % 1017,0 hPa 0,0 l/m 0 min 0 min 0,0 UV-I 0 W/m 0,0 km/h (0 Bft)
22.04.2013 06:32 5,6 C 2,9 C 78 % 1017,0 hPa 0,0 l/m 0 min 0 min 0,0 UV-I 5 W/m 0,0 km/h (0 Bft)
22.04.2013 06:34 5,6 C 2,9 C 78 % 1017,1 hPa 0,0 l/m 0 min 0 min 0,0 UV-I 5 W/m 0,0 km/h (0 Bft)
22.04.2013 06:36 5,5 C 2,9 C 78 % 1017,0 hPa 0,0 l/m 0 min 0 min 0,0 UV-I 5 W/m 0,0 km/h (0 Bft)
22.04.2013 06:38 5,4 C 2,9 C 78 % 1017,1 hPa 0,0 l/m 0 min 0 min 0,0 UV-I 5 W/m 0,0 km/h (0 Bft)
22.04.2013 06:40 5,4 C 2,3 C 79 % 1017,1 hPa 0,0 l/m 0 min 0 min 0,0 UV-I 7 W/m 0,0 km/h (0 Bft)
22.04.2013 06:42 5,3 C 2,3 C 79 % 1017,1 hPa 0,0 l/m 0 min 0 min 0,0 UV-I 7 W/m 0,0 km/h (0 Bft)
22.04.2013 06:44 5,3 C 2,3 C 79 % 1017,1 hPa 0,0 l/m 0 min 0 min 0,0 UV-I 7 W/m 0,0 km/h (0 Bft)
22.04.2013 06:46 5,2 C 2,3 C 79 % 1017,1 hPa 0,0 l/m 0 min 0 min 0,0 UV-I 7 W/m 0,0 km/h (0 Bft)
22.04.2013 06:48 5,2 C 2,3 C 79 % 1017,1 hPa 0,0 l/m 0 min 0 min 0,0 UV-I 9 W/m 0,0 km/h (0 Bft)
22.04.2013 06:50 5,2 C 2,3 C 79 % 1017,1 hPa 0,0 l/m 0 min 0 min 0,0 UV-I 9 W/m 0,0 km/h (0 Bft)
22.04.2013 06:52 5,1 C 2,3 C 79 % 1017,1 hPa 0,0 l/m 0 min 0 min 0,0 UV-I 9 W/m 0,0 km/h (0 Bft)
22.04.2013 06:54 5,1 C 2,3 C 79 % 1017,1 hPa 0,0 l/m 0 min 0 min 0,0 UV-I 9 W/m 0,0 km/h (0 Bft)
22.04.2013 06:56 5,0 C 2,3 C 79 % 1017,2 hPa 0,0 l/m 0 min 0 min 0,0 UV-I 11 W/m 0,0 km/h (0 Bft)
22.04.2013 06:58 4,9 C 2,3 C 79 % 1017,2 hPa 0,0 l/m 0 min 0 min 0,0 UV-I 11 W/m 0,0 km/h (0 Bft)
22.04.2013 07:00 4,9 C 2,3 C 79 % 1017,2 hPa 0,0 l/m 0 min 0 min 0,0 UV-I 11 W/m 0,0 km/h (0 Bft)
22.04.2013 07:02 4,8 C 2,3 C 79 % 1017,2 hPa 0,0 l/m 0 min 0 min 0,0 UV-I 11 W/m 0,0 km/h (0 Bft)
22.04.2013 07:04 4,8 C 2,3 C 80 % 1017,2 hPa 0,0 l/m 0 min 0 min 0,0 UV-I 12 W/m 0,0 km/h (0 Bft)
22.04.2013 07:06 4,8 C 2,3 C 81 % 1017,2 hPa 0,0 l/m 0 min 0 min 0,0 UV-I 12 W/m 0,0 km/h (0 Bft)
22.04.2013 07:08 4,7 C 2,3 C 81 % 1017,2 hPa 0,0 l/m 0 min 0 min 0,0 UV-I 12 W/m 0,0 km/h (0 Bft)
22.04.2013 07:10 4,7 C 2,3 C 80 % 1017,2 hPa 0,0 l/m 0 min 0 min 0,0 UV-I 14 W/m 0,0 km/h (0 Bft)
22.04.2013 07:12 4,7 C 2,3 C 81 % 1017,3 hPa 0,0 l/m 0 min 0 min 0,0 UV-I 16 W/m 0,0 km/h (0 Bft)
22.04.2013 07:14 4,7 C 2,3 C 81 % 1017,3 hPa 0,0 l/m 0 min 0 min 0,0 UV-I 16 W/m 0,0 km/h (0 Bft)
22.04.2013 07:16 4,6 C 2,3 C 81 % 1017,3 hPa 0,0 l/m 0 min 0 min 0,0 UV-I 19 W/m 0,0 km/h (0 Bft)
22.04.2013 07:18 4,6 C 2,3 C 81 % 1017,3 hPa 0,0 l/m 0 min 0 min 0,0 UV-I 21 W/m 0,0 km/h (0 Bft)
22.04.2013 07:20 4,5 C 2,3 C 81 % 1017,2 hPa 0,0 l/m 0 min 0 min 0,0 UV-I 23 W/m 0,0 km/h (0 Bft)
22.04.2013 07:22 4,5 C 2,3 C 81 % 1017,3 hPa 0,0 l/m 0 min 0 min 0,0 UV-I 25 W/m 0,0 km/h (0 Bft)
22.04.2013 07:24 4,4 C 2,3 C 81 % 1017,3 hPa 0,0 l/m 0 min 0 min 0,0 UV-I 25 W/m 0,0 km/h (0 Bft)
22.04.2013 07:26 4,4 C 2,3 C 82 % 1017,3 hPa 0,0 l/m 0 min 0 min 0,0 UV-I 26 W/m 0,0 km/h (0 Bft)
22.04.2013 07:28 4,4 C 2,3 C 82 % 1017,3 hPa 0,0 l/m 0 min 0 min 0,0 UV-I 30 W/m 0,0 km/h (0 Bft)
22.04.2013 07:30 4,3 C 2,9 C 82 % 1017,3 hPa 0,0 l/m 0 min 0 min 0,0 UV-I 32 W/m 0,0 km/h (0 Bft)
22.04.2013 07:32 4,3 C 2,9 C 82 % 1017,3 hPa 0,0 l/m 0 min 0 min 0,0 UV-I 32 W/m 0,0 km/h (0 Bft)
22.04.2013 07:34 4,3 C 2,9 C 83 % 1017,3 hPa 0,0 l/m 0 min 0 min 0,0 UV-I 33 W/m 0,0 km/h (0 Bft)
22.04.2013 07:36 4,3 C 2,9 C 83 % 1017,3 hPa 0,0 l/m 0 min 0 min 0,0 UV-I 33 W/m 0,0 km/h (0 Bft)
22.04.2013 07:38 4,3 C 2,9 C 83 % 1017,3 hPa 0,0 l/m 0 min 0 min 0,0 UV-I 35 W/m 0,0 km/h (0 Bft)
22.04.2013 07:40 4,2 C 2,9 C 83 % 1017,3 hPa 0,0 l/m 0 min 0 min 0,0 UV-I 37 W/m 0,0 km/h (0 Bft)
22.04.2013 07:42 4,2 C 3,4 C 83 % 1017,2 hPa 0,0 l/m 0 min 0 min 0,0 UV-I 37 W/m 0,0 km/h (0 Bft)
22.04.2013 07:44 4,2 C 3,4 C 84 % 1017,2 hPa 0,0 l/m 0 min 0 min 0,0 UV-I 39 W/m 0,0 km/h (0 Bft)
22.04.2013 07:46 4,2 C 3,4 C 84 % 1017,2 hPa 0,0 l/m 0 min 0 min 0,0 UV-I 39 W/m 0,0 km/h (0 Bft)
22.04.2013 07:48 4,2 C 3,4 C 84 % 1017,3 hPa 0,0 l/m 0 min 0 min 0,0 UV-I 40 W/m 0,0 km/h (0 Bft)
22.04.2013 07:50 4,2 C 3,4 C 84 % 1017,3 hPa 0,0 l/m 0 min 0 min 0,0 UV-I 40 W/m 0,0 km/h (0 Bft)
22.04.2013 07:52 4,3 C 3,4 C 84 % 1017,3 hPa 0,0 l/m 0 min 0 min 0,0 UV-I 42 W/m 0,0 km/h (0 Bft)
22.04.2013 07:54 4,3 C 3,4 C 84 % 1017,2 hPa 0,0 l/m 0 min 0 min 0,0 UV-I 42 W/m 0,0 km/h (0 Bft)
22.04.2013 07:56 4,3 C 4,0 C 84 % 1017,2 hPa 0,0 l/m 0 min 0 min 0,0 UV-I 42 W/m 0,0 km/h (0 Bft)
22.04.2013 07:58 4,3 C 4,0 C 85 % 1017,3 hPa 0,0 l/m 0 min 0 min 0,0 UV-I 44 W/m 0,0 km/h (0 Bft)
22.04.2013 08:00 4,3 C 4,0 C 85 % 1017,4 hPa 0,0 l/m 0 min 0 min 0,0 UV-I 46 W/m 0,0 km/h (0 Bft)
22.04.2013 08:02 4,3 C 4,0 C 85 % 1017,3 hPa 0,0 l/m 0 min 0 min 0,0 UV-I 46 W/m 0,0 km/h (0 Bft)
22.04.2013 08:04 4,3 C 4,0 C 85 % 1017,3 hPa 0,0 l/m 0 min 0 min 0,0 UV-I 47 W/m 0,0 km/h (0 Bft)
22.04.2013 08:06 4,4 C 4,0 C 85 % 1017,4 hPa 0,0 l/m 0 min 0 min 0,0 UV-I 47 W/m 0,0 km/h (0 Bft)
22.04.2013 08:08 4,4 C 4,0 C 85 % 1017,4 hPa 0,0 l/m 0 min 0 min 0,0 UV-I 47 W/m 0,0 km/h (0 Bft)
22.04.2013 08:10 4,4 C 4,6 C 85 % 1017,4 hPa 0,0 l/m 0 min 0 min 0,0 UV-I 49 W/m 0,0 km/h (0 Bft)
22.04.2013 08:12 4,5 C 4,6 C 85 % 1017,4 hPa 0,0 l/m 0 min 0 min 0,0 UV-I 49 W/m 0,0 km/h (0 Bft)
22.04.2013 08:14 4,6 C 4,6 C 85 % 1017,4 hPa 0,0 l/m 0 min 0 min 0,0 UV-I 51 W/m 0,0 km/h (0 Bft)
22.04.2013 08:16 4,6 C 4,6 C 84 % 1017,4 hPa 0,0 l/m 0 min 0 min 0,0 UV-I 51 W/m 0,0 km/h (0 Bft)
22.04.2013 08:18 4,6 C 4,6 C 84 % 1017,4 hPa 0,0 l/m 0 min 0 min 0,0 UV-I 53 W/m 0,0 km/h (0 Bft)
22.04.2013 08:20 4,7 C 4,6 C 84 % 1017,4 hPa 0,0 l/m 0 min 0 min 0,0 UV-I 53 W/m 0,0 km/h (0 Bft)
22.04.2013 08:22 4,7 C 4,6 C 84 % 1017,4 hPa 0,0 l/m 0 min 0 min 0,0 UV-I 54 W/m 0,0 km/h (0 Bft)
22.04.2013 08:24 4,8 C 4,6 C 84 % 1017,5 hPa 0,0 l/m 0 min 0 min 0,0 UV-I 54 W/m 0,0 km/h (0 Bft)
22.04.2013 08:26 4,8 C 5,1 C 83 % 1017,5 hPa 0,0 l/m 0 min 0 min 0,0 UV-I 56 W/m 0,0 km/h (0 Bft)
22.04.2013 08:28 4,9 C 5,1 C 84 % 1017,5 hPa 0,0 l/m 0 min 0 min 0,0 UV-I 56 W/m 0,0 km/h (0 Bft)
22.04.2013 08:30 4,9 C 5,1 C 83 % 1017,5 hPa 0,0 l/m 0 min 0 min 0,0 UV-I 58 W/m 0,0 km/h (0 Bft)
22.04.2013 08:32 5,1 C 5,1 C 83 % 1017,5 hPa 0,0 l/m 0 min 0 min 0,0 UV-I 58 W/m 2,6 km/h (1 Bft)
22.04.2013 08:34 5,1 C 5,1 C 83 % 1017,6 hPa 0,0 l/m 0 min 0 min 0,0 UV-I 60 W/m 0,0 km/h (0 Bft)
22.04.2013 08:36 5,2 C 5,1 C 83 % 1017,5 hPa 0,0 l/m 0 min 0 min 0,0 UV-I 62 W/m 0,0 km/h (0 Bft)
22.04.2013 08:38 5,2 C 5,1 C 83 % 1017,5 hPa 0,0 l/m 0 min 0 min 0,0 UV-I 62 W/m 0,0 km/h (0 Bft)
22.04.2013 08:40 5,3 C 5,7 C 83 % 1017,6 hPa 0,0 l/m 0 min 0 min 0,0 UV-I 63 W/m 0,0 km/h (0 Bft)
22.04.2013 08:42 5,4 C 5,7 C 82 % 1017,5 hPa 0,0 l/m 0 min 0 min 0,0 UV-I 63 W/m 2,6 km/h (1 Bft)
22.04.2013 08:44 5,4 C 5,7 C 82 % 1017,6 hPa 0,0 l/m 0 min 0 min 0,0 UV-I 65 W/m 0,0 km/h (0 Bft)
22.04.2013 08:46 5,6 C 5,7 C 81 % 1017,6 hPa 0,0 l/m 0 min 0 min 0,0 UV-I 67 W/m 0,0 km/h (0 Bft)
22.04.2013 08:48 5,7 C 5,7 C 81 % 1017,6 hPa 0,0 l/m 0 min 0 min 0,0 UV-I 67 W/m 0,0 km/h (0 Bft)
22.04.2013 08:50 5,8 C 5,7 C 81 % 1017,6 hPa 0,0 l/m 0 min 0 min 0,0 UV-I 69 W/m 0,0 km/h (0 Bft)
22.04.2013 08:52 5,8 C 6,2 C 81 % 1017,7 hPa 0,0 l/m 0 min 0 min 0,0 UV-I 69 W/m 0,0 km/h (0 Bft)
22.04.2013 08:54 5,9 C 6,2 C 80 % 1017,6 hPa 0,0 l/m 0 min 0 min 0,0 UV-I 70 W/m 0,0 km/h (0 Bft)
22.04.2013 08:56 6,1 C 6,2 C 80 % 1017,7 hPa 0,0 l/m 0 min 0 min 0,0 UV-I 70 W/m 0,0 km/h (0 Bft)
22.04.2013 08:58 6,2 C 6,2 C 79 % 1017,7 hPa 0,0 l/m 0 min 0 min 0,0 UV-I 70 W/m 2,6 km/h (1 Bft)
22.04.2013 09:00 6,4 C 6,2 C 78 % 1017,6 hPa 0,0 l/m 0 min 0 min 0,0 UV-I 70 W/m 2,6 km/h (1 Bft)
22.04.2013 09:02 6,6 C 6,2 C 78 % 1017,6 hPa 0,0 l/m 0 min 0 min 0,0 UV-I 72 W/m 0,0 km/h (0 Bft)
22.04.2013 09:04 6,7 C 6,2 C 77 % 1017,6 hPa 0,0 l/m 0 min 0 min 0,0 UV-I 72 W/m 0,0 km/h (0 Bft)
22.04.2013 09:06 6,8 C 6,8 C 77 % 1017,7 hPa 0,0 l/m 0 min 0 min 0,0 UV-I 74 W/m 0,0 km/h (0 Bft)
22.04.2013 09:08 6,9 C 6,8 C 77 % 1017,7 hPa 0,0 l/m 0 min 0 min 0,0 UV-I 77 W/m 5,1 km/h (1 Bft)
22.04.2013 09:10 7,1 C 6,8 C 76 % 1017,8 hPa 0,0 l/m 0 min 0 min 0,0 UV-I 83 W/m 0,0 km/h (0 Bft)
22.04.2013 09:12 7,2 C 6,8 C 75 % 1017,8 hPa 0,0 l/m 0 min 0 min 0,0 UV-I 90 W/m 2,6 km/h (1 Bft)
22.04.2013 09:14 7,3 C 6,8 C 75 % 1017,8 hPa 0,0 l/m 0 min 0 min 0,0 UV-I 107 W/m 2,6 km/h (1 Bft)
22.04.2013 09:16 7,5 C 7,3 C 75 % 1017,7 hPa 0,0 l/m 0 min 0 min 0,0 UV-I 123 W/m 10,3 km/h (2 Bft)
22.04.2013 09:18 7,7 C 7,3 C 73 % 1017,7 hPa 0,0 l/m 0 min 0 min 0,0 UV-I 144 W/m 2,6 km/h (1 Bft)
22.04.2013 09:20 7,8 C 7,3 C 72 % 1017,8 hPa 0,0 l/m 0 min 0 min 0,0 UV-I 179 W/m 0,0 km/h (0 Bft)
22.04.2013 09:22 7,9 C 7,9 C 71 % 1017,7 hPa 0,0 l/m 0 min 0 min 0,0 UV-I 207 W/m 2,6 km/h (1 Bft)
22.04.2013 09:24 8,1 C 7,9 C 71 % 1017,8 hPa 0,0 l/m 0 min 0 min 0,0 UV-I 232 W/m 0,0 km/h (0 Bft)
22.04.2013 09:26 8,2 C 7,9 C 70 % 1017,8 hPa 0,0 l/m 2 min 0 min 0,0 UV-I 255 W/m 2,6 km/h (1 Bft)
22.04.2013 09:28 8,3 C 7,9 C 69 % 1017,9 hPa 0,0 l/m 2 min 0 min 0,0 UV-I 288 W/m 2,6 km/h (1 Bft)
22.04.2013 09:30 8,4 C 7,9 C 69 % 1017,8 hPa 0,0 l/m 2 min 0 min 0,0 UV-I 306 W/m 10,3 km/h (2 Bft)
22.04.2013 09:32 8,6 C 8,4 C 68 % 1017,9 hPa 0,0 l/m 2 min 0 min 0,0 UV-I 325 W/m 5,1 km/h (1 Bft)
22.04.2013 09:34 8,7 C 9,0 C 68 % 1017,8 hPa 0,0 l/m 2 min 0 min 0,0 UV-I 339 W/m 2,6 km/h (1 Bft)
22.04.2013 09:36 8,8 C 10,1 C 66 % 1017,8 hPa 0,0 l/m 2 min 0 min 0,0 UV-I 345 W/m 5,1 km/h (1 Bft)
22.04.2013 09:38 8,9 C 12,3 C 66 % 1017,9 hPa 0,0 l/m 2 min 0 min 0,0 UV-I 360 W/m 0,0 km/h (0 Bft)
22.04.2013 09:40 9,1 C 12,9 C 66 % 1017,9 hPa 0,0 l/m 2 min 0 min 0,0 UV-I 366 W/m 2,6 km/h (1 Bft)
22.04.2013 09:42 9,2 C 13,4 C 65 % 1017,8 hPa 0,0 l/m 2 min 0 min 0,0 UV-I 369 W/m 10,3 km/h (2 Bft)
22.04.2013 09:44 9,2 C 14,0 C 64 % 1017,8 hPa 0,0 l/m 2 min 0 min 0,0 UV-I 374 W/m 0,0 km/h (0 Bft)
22.04.2013 09:46 9,3 C 14,0 C 63 % 1017,8 hPa 0,0 l/m 2 min 0 min 0,0 UV-I 378 W/m 2,6 km/h (1 Bft)
22.04.2013 09:48 9,4 C 14,6 C 62 % 1017,8 hPa 0,0 l/m 2 min 0 min 0,0 UV-I 385 W/m 2,6 km/h (1 Bft)
22.04.2013 09:50 9,5 C 15,7 C 63 % 1017,8 hPa 0,0 l/m 2 min 0 min 0,0 UV-I 390 W/m 2,6 km/h (1 Bft)
22.04.2013 09:52 9,6 C 16,2 C 63 % 1017,8 hPa 0,0 l/m 2 min 0 min 0,0 UV-I 396 W/m 10,3 km/h (2 Bft)
22.04.2013 09:54 9,7 C 15,7 C 63 % 1017,8 hPa 0,0 l/m 2 min 0 min 0,5 UV-I 399 W/m 7,7 km/h (2 Bft)
22.04.2013 09:56 9,8 C 15,7 C 63 % 1017,8 hPa 0,0 l/m 2 min 0 min 0,5 UV-I 403 W/m 12,9 km/h (3 Bft)
22.04.2013 09:58 9,9 C 15,7 C 63 % 1017,8 hPa 0,0 l/m 2 min 0 min 0,5 UV-I 406 W/m 7,7 km/h (2 Bft)
22.04.2013 10:00 9,9 C 15,7 C 63 % 1017,8 hPa 0,0 l/m 2 min 0 min 0,5 UV-I 408 W/m 15,4 km/h (3 Bft)
22.04.2013 10:02 10,1 C 15,7 C 62 % 1017,8 hPa 0,0 l/m 2 min 0 min 0,6 UV-I 417 W/m 7,7 km/h (2 Bft)
22.04.2013 10:04 10,1 C 16,2 C 62 % 1017,8 hPa 0,0 l/m 2 min 0 min 0,6 UV-I 415 W/m 7,7 km/h (2 Bft)
22.04.2013 10:06 10,2 C 16,2 C 62 % 1017,8 hPa 0,0 l/m 2 min 0 min 0,6 UV-I 422 W/m 10,3 km/h (2 Bft)
22.04.2013 10:08 10,3 C 16,8 C 63 % 1017,8 hPa 0,0 l/m 2 min 0 min 0,6 UV-I 425 W/m 5,1 km/h (1 Bft)
22.04.2013 10:10 10,4 C 16,8 C 63 % 1017,9 hPa 0,0 l/m 2 min 0 min 0,7 UV-I 429 W/m 7,7 km/h (2 Bft)
22.04.2013 10:12 10,5 C 16,8 C 63 % 1017,8 hPa 0,0 l/m 2 min 0 min 0,7 UV-I 443 W/m 7,7 km/h (2 Bft)
22.04.2013 10:14 10,6 C 16,8 C 62 % 1017,8 hPa 0,0 l/m 2 min 0 min 0,7 UV-I 450 W/m 0,0 km/h (0 Bft)
22.04.2013 10:16 10,7 C 17,3 C 62 % 1017,8 hPa 0,0 l/m 2 min 0 min 0,8 UV-I 455 W/m 0,0 km/h (0 Bft)
22.04.2013 10:18 10,8 C 17,3 C 62 % 1017,9 hPa 0,0 l/m 2 min 0 min 0,8 UV-I 450 W/m 0,0 km/h (0 Bft)
22.04.2013 10:20 10,8 C 16,8 C 61 % 1017,9 hPa 0,0 l/m 2 min 0 min 0,8 UV-I 454 W/m 2,6 km/h (1 Bft)
22.04.2013 10:22 10,9 C 16,8 C 61 % 1017,8 hPa 0,0 l/m 2 min 0 min 0,9 UV-I 464 W/m 7,7 km/h (2 Bft)
22.04.2013 10:24 11,1 C 17,3 C 62 % 1017,8 hPa 0,0 l/m 2 min 0 min 0,9 UV-I 466 W/m 0,0 km/h (0 Bft)
22.04.2013 10:26 11,2 C 17,3 C 62 % 1017,8 hPa 0,0 l/m 2 min 0 min 0,9 UV-I 471 W/m 0,0 km/h (0 Bft)
22.04.2013 10:28 11,3 C 17,3 C 61 % 1017,8 hPa 0,0 l/m 2 min 0 min 0,9 UV-I 476 W/m 2,6 km/h (1 Bft)
22.04.2013 10:30 11,4 C 16,8 C 61 % 1017,7 hPa 0,0 l/m 2 min 0 min 1,0 UV-I 489 W/m 5,1 km/h (1 Bft)
22.04.2013 10:32 11,4 C 16,2 C 60 % 1017,8 hPa 0,0 l/m 2 min 0 min 1,0 UV-I 490 W/m 2,6 km/h (1 Bft)
22.04.2013 10:34 11,5 C 16,2 C 60 % 1017,8 hPa 0,0 l/m 2 min 0 min 1,0 UV-I 496 W/m 2,6 km/h (1 Bft)
22.04.2013 10:36 11,6 C 15,7 C 60 % 1017,8 hPa 0,0 l/m 2 min 0 min 1,0 UV-I 494 W/m 0,0 km/h (0 Bft)
22.04.2013 10:38 11,7 C 15,1 C 60 % 1017,8 hPa 0,0 l/m 2 min 0 min 1,1 UV-I 499 W/m 12,9 km/h (3 Bft)
22.04.2013 10:40 11,7 C 15,1 C 60 % 1017,7 hPa 0,0 l/m 2 min 0 min 1,1 UV-I 501 W/m 5,1 km/h (1 Bft)
22.04.2013 10:42 11,8 C 15,1 C 59 % 1017,7 hPa 0,0 l/m 2 min 0 min 1,1 UV-I 496 W/m 7,7 km/h (2 Bft)
22.04.2013 10:44 11,8 C 14,6 C 59 % 1017,6 hPa 0,0 l/m 2 min 0 min 1,2 UV-I 476 W/m 2,6 km/h (1 Bft)
22.04.2013 10:46 11,9 C 14,6 C 58 % 1017,7 hPa 0,0 l/m 2 min 0 min 1,2 UV-I 431 W/m 0,0 km/h (0 Bft)
22.04.2013 10:48 11,9 C 16,2 C 60 % 1017,7 hPa 0,0 l/m 2 min 0 min 1,2 UV-I 352 W/m 0,0 km/h (0 Bft)
22.04.2013 10:50 12,1 C 16,8 C 60 % 1017,7 hPa 0,0 l/m 0 min 0 min 1,2 UV-I 292 W/m 10,3 km/h (2 Bft)
22.04.2013 10:52 12,1 C 17,3 C 59 % 1017,7 hPa 0,0 l/m 0 min 0 min 1,3 UV-I 243 W/m 2,6 km/h (1 Bft)
22.04.2013 10:54 12,2 C 17,3 C 60 % 1017,7 hPa 0,0 l/m 0 min 0 min 1,3 UV-I 181 W/m 5,1 km/h (1 Bft)
22.04.2013 10:56 12,2 C 16,2 C 58 % 1017,8 hPa 0,0 l/m 0 min 0 min 1,3 UV-I 160 W/m 7,7 km/h (2 Bft)
22.04.2013 10:58 12,2 C 16,2 C 59 % 1017,7 hPa 0,0 l/m 0 min 0 min 1,3 UV-I 155 W/m 2,6 km/h (1 Bft)
22.04.2013 11:00 12,3 C 15,7 C 58 % 1017,6 hPa 0,0 l/m 0 min 0 min 1,3 UV-I 192 W/m 2,6 km/h (1 Bft)
22.04.2013 11:02 12,3 C 16,8 C 59 % 1017,6 hPa 0,0 l/m 0 min 0 min 1,4 UV-I 248 W/m 2,6 km/h (1 Bft)
22.04.2013 11:04 12,4 C 16,8 C 59 % 1017,7 hPa 0,0 l/m 0 min 0 min 1,4 UV-I 308 W/m 0,0 km/h (0 Bft)
22.04.2013 11:06 12,5 C 16,8 C 59 % 1017,6 hPa 0,0 l/m 2 min 0 min 1,4 UV-I 367 W/m 0,0 km/h (0 Bft)
22.04.2013 11:08 12,6 C 16,8 C 58 % 1017,7 hPa 0,0 l/m 2 min 0 min 1,5 UV-I 369 W/m 7,7 km/h (2 Bft)
22.04.2013 11:10 12,7 C 16,2 C 57 % 1017,7 hPa 0,0 l/m 0 min 0 min 1,5 UV-I 345 W/m 12,9 km/h (3 Bft)
22.04.2013 11:12 12,7 C 15,7 C 56 % 1017,7 hPa 0,0 l/m 0 min 0 min 1,6 UV-I 302 W/m 15,4 km/h (3 Bft)
22.04.2013 11:14 12,7 C 15,7 C 58 % 1017,8 hPa 0,0 l/m 0 min 0 min 1,6 UV-I 304 W/m 2,6 km/h (1 Bft)
22.04.2013 11:16 12,7 C 15,1 C 57 % 1017,6 hPa 0,0 l/m 0 min 0 min 1,6 UV-I 336 W/m 7,7 km/h (2 Bft)
22.04.2013 11:18 12,8 C 14,6 C 57 % 1017,6 hPa 0,0 l/m 2 min 0 min 1,6 UV-I 434 W/m 2,6 km/h (1 Bft)
22.04.2013 11:20 12,8 C 14,0 C 58 % 1017,6 hPa 0,0 l/m 2 min 0 min 1,6 UV-I 492 W/m 2,6 km/h (1 Bft)
22.04.2013 11:22 12,9 C 14,0 C 58 % 1017,7 hPa 0,0 l/m 2 min 0 min 1,7 UV-I 543 W/m 10,3 km/h (2 Bft)
22.04.2013 11:24 12,9 C 14,0 C 58 % 1017,7 hPa 0,0 l/m 2 min 0 min 1,7 UV-I 580 W/m 12,9 km/h (3 Bft)
22.04.2013 11:26 12,9 C 13,4 C 57 % 1017,8 hPa 0,0 l/m 2 min 0 min 1,8 UV-I 594 W/m 12,9 km/h (3 Bft)
22.04.2013 11:28 12,9 C 13,4 C 57 % 1017,6 hPa 0,0 l/m 2 min 0 min 1,8 UV-I 598 W/m 20,6 km/h (4 Bft)
22.04.2013 11:30 12,9 C 14,0 C 59 % 1017,7 hPa 0,0 l/m 2 min 0 min 1,8 UV-I 599 W/m 2,6 km/h (1 Bft)
22.04.2013 11:32 12,9 C 14,0 C 56 % 1017,5 hPa 0,0 l/m 2 min 0 min 1,8 UV-I 594 W/m 5,1 km/h (1 Bft)
22.04.2013 11:34 13,1 C 14,0 C 57 % 1017,6 hPa 0,0 l/m 2 min 0 min 1,9 UV-I 612 W/m 7,7 km/h (2 Bft)
22.04.2013 11:36 13,1 C 14,0 C 57 % 1017,5 hPa 0,0 l/m 2 min 0 min 1,9 UV-I 622 W/m 12,9 km/h (3 Bft)
22.04.2013 11:38 13,2 C 14,0 C 56 % 1017,5 hPa 0,0 l/m 2 min 0 min 2,0 UV-I 628 W/m 2,6 km/h (1 Bft)
22.04.2013 11:40 13,2 C 14,6 C 57 % 1017,5 hPa 0,0 l/m 2 min 0 min 2,0 UV-I 633 W/m 2,6 km/h (1 Bft)
22.04.2013 11:42 13,3 C 14,6 C 59 % 1017,4 hPa 0,0 l/m 2 min 0 min 2,0 UV-I 635 W/m 2,6 km/h (1 Bft)
22.04.2013 11:44 13,4 C 14,6 C 57 % 1017,5 hPa 0,0 l/m 2 min 0 min 2,1 UV-I 645 W/m 10,3 km/h (2 Bft)
22.04.2013 11:46 13,5 C 14,6 C 56 % 1017,4 hPa 0,0 l/m 2 min 0 min 2,1 UV-I 636 W/m 10,3 km/h (2 Bft)
22.04.2013 11:48 13,6 C 15,1 C 57 % 1017,4 hPa 0,0 l/m 2 min 0 min 2,1 UV-I 640 W/m 0,0 km/h (0 Bft)
22.04.2013 11:50 13,6 C 16,8 C 57 % 1017,5 hPa 0,0 l/m 2 min 0 min 2,1 UV-I 647 W/m 7,7 km/h (2 Bft)
22.04.2013 11:52 13,7 C 17,9 C 58 % 1017,3 hPa 0,0 l/m 2 min 0 min 2,2 UV-I 654 W/m 15,4 km/h (3 Bft)
22.04.2013 11:54 13,7 C 18,4 C 55 % 1017,3 hPa 0,0 l/m 2 min 0 min 2,2 UV-I 664 W/m 7,7 km/h (2 Bft)
22.04.2013 11:56 13,8 C 17,9 C 57 % 1017,4 hPa 0,0 l/m 2 min 0 min 2,2 UV-I 664 W/m 10,3 km/h (2 Bft)
22.04.2013 11:58 13,8 C 17,9 C 56 % 1017,4 hPa 0,0 l/m 2 min 0 min 2,2 UV-I 663 W/m 15,4 km/h (3 Bft)
22.04.2013 12:00 13,8 C 18,4 C 55 % 1017,4 hPa 0,0 l/m 2 min 0 min 2,2 UV-I 663 W/m 12,9 km/h (3 Bft)
22.04.2013 12:02 13,9 C 19,6 C 57 % 1017,3 hPa 0,0 l/m 2 min 0 min 2,3 UV-I 668 W/m 2,6 km/h (1 Bft)
22.04.2013 12:04 13,9 C 19,6 C 55 % 1017,3 hPa 0,0 l/m 2 min 0 min 2,3 UV-I 671 W/m 2,6 km/h (1 Bft)
22.04.2013 12:06 13,9 C 19,6 C 54 % 1017,3 hPa 0,0 l/m 2 min 0 min 2,3 UV-I 661 W/m 0,0 km/h (0 Bft)
22.04.2013 12:08 13,9 C 19,0 C 56 % 1017,4 hPa 0,0 l/m 2 min 0 min 2,2 UV-I 661 W/m 10,3 km/h (2 Bft)
22.04.2013 12:10 14,0 C 19,0 C 55 % 1017,3 hPa 0,0 l/m 2 min 0 min 2,3 UV-I 657 W/m 2,6 km/h (1 Bft)
22.04.2013 12:12 14,1 C 18,4 C 56 % 1017,3 hPa 0,0 l/m 2 min 0 min 2,2 UV-I 650 W/m 7,7 km/h (2 Bft)
22.04.2013 12:14 14,1 C 19,0 C 55 % 1017,3 hPa 0,0 l/m 2 min 0 min 2,3 UV-I 649 W/m 2,6 km/h (1 Bft)
22.04.2013 12:16 14,1 C 18,4 C 53 % 1017,3 hPa 0,0 l/m 2 min 0 min 2,5 UV-I 687 W/m 12,9 km/h (3 Bft)
22.04.2013 12:18 14,1 C 18,4 C 54 % 1017,2 hPa 0,0 l/m 2 min 0 min 2,5 UV-I 707 W/m 2,6 km/h (1 Bft)
22.04.2013 12:20 14,1 C 17,9 C 54 % 1017,2 hPa 0,0 l/m 2 min 0 min 2,3 UV-I 661 W/m 15,4 km/h (3 Bft)
22.04.2013 12:22 14,1 C 17,9 C 54 % 1017,2 hPa 0,0 l/m 2 min 0 min 2,4 UV-I 659 W/m 18,0 km/h (3 Bft)
22.04.2013 12:24 14,2 C 18,4 C 54 % 1017,3 hPa 0,0 l/m 2 min 0 min 2,3 UV-I 659 W/m 12,9 km/h (3 Bft)
22.04.2013 12:26 14,2 C 19,0 C 56 % 1017,2 hPa 0,0 l/m 2 min 0 min 2,3 UV-I 649 W/m 5,1 km/h (1 Bft)
22.04.2013 12:28 14,3 C 19,0 C 54 % 1017,2 hPa 0,0 l/m 2 min 0 min 2,3 UV-I 661 W/m 10,3 km/h (2 Bft)
22.04.2013 12:30 14,3 C 19,0 C 54 % 1017,1 hPa 0,0 l/m 2 min 0 min 2,4 UV-I 673 W/m 20,6 km/h (4 Bft)
22.04.2013 12:32 14,3 C 19,0 C 53 % 1017,1 hPa 0,0 l/m 2 min 0 min 2,5 UV-I 677 W/m 15,4 km/h (3 Bft)
22.04.2013 12:34 14,3 C 19,0 C 52 % 1017,1 hPa 0,0 l/m 2 min 0 min 2,5 UV-I 689 W/m 12,9 km/h (3 Bft)
22.04.2013 12:36 14,3 C 19,0 C 51 % 1017,1 hPa 0,0 l/m 2 min 0 min 2,4 UV-I 680 W/m 7,7 km/h (2 Bft)
22.04.2013 12:38 14,4 C 20,1 C 53 % 1017,2 hPa 0,0 l/m 2 min 0 min 2,5 UV-I 680 W/m 7,7 km/h (2 Bft)
22.04.2013 12:40 14,5 C 20,1 C 54 % 1017,2 hPa 0,0 l/m 2 min 0 min 2,6 UV-I 700 W/m 12,9 km/h (3 Bft)
22.04.2013 12:42 14,6 C 20,1 C 52 % 1017,3 hPa 0,0 l/m 2 min 0 min 2,5 UV-I 680 W/m 10,3 km/h (2 Bft)
22.04.2013 12:44 14,6 C 20,1 C 51 % 1017,3 hPa 0,0 l/m 2 min 0 min 2,6 UV-I 708 W/m 7,7 km/h (2 Bft)
22.04.2013 12:46 14,7 C 20,1 C 52 % 1017,3 hPa 0,0 l/m 2 min 0 min 2,5 UV-I 682 W/m 5,1 km/h (1 Bft)
22.04.2013 12:48 14,7 C 20,1 C 51 % 1017,3 hPa 0,0 l/m 2 min 0 min 2,4 UV-I 643 W/m 5,1 km/h (1 Bft)
22.04.2013 12:50 14,7 C 20,1 C 54 % 1017,3 hPa 0,0 l/m 2 min 0 min 2,5 UV-I 689 W/m 7,7 km/h (2 Bft)
22.04.2013 12:52 14,8 C 20,1 C 51 % 1017,2 hPa 0,0 l/m 2 min 0 min 2,6 UV-I 691 W/m 5,1 km/h (1 Bft)
22.04.2013 12:54 14,8 C 20,1 C 52 % 1017,3 hPa 0,0 l/m 2 min 0 min 2,5 UV-I 659 W/m 10,3 km/h (2 Bft)
22.04.2013 12:56 14,9 C 20,1 C 50 % 1017,4 hPa 0,0 l/m 2 min 0 min 2,7 UV-I 714 W/m 18,0 km/h (3 Bft)
22.04.2013 12:58 14,9 C 20,1 C 51 % 1017,4 hPa 0,0 l/m 2 min 0 min 2,7 UV-I 717 W/m 10,3 km/h (2 Bft)
22.04.2013 13:00 14,9 C 20,1 C 50 % 1017,3 hPa 0,0 l/m 2 min 0 min 2,7 UV-I 707 W/m 2,6 km/h (1 Bft)
22.04.2013 13:02 14,9 C 20,1 C 50 % 1017,3 hPa 0,0 l/m 2 min 0 min 2,8 UV-I 719 W/m 12,9 km/h (3 Bft)
22.04.2013 13:04 15,0 C 21,2 C 51 % 1017,3 hPa 0,0 l/m 2 min 0 min 2,7 UV-I 701 W/m 12,9 km/h (3 Bft)
22.04.2013 13:06 15,0 C 20,1 C 50 % 1017,3 hPa 0,0 l/m 2 min 0 min 2,8 UV-I 703 W/m 12,9 km/h (3 Bft)
22.04.2013 13:08 15,0 C 20,7 C 51 % 1017,3 hPa 0,0 l/m 2 min 0 min 2,8 UV-I 715 W/m 10,3 km/h (2 Bft)
22.04.2013 13:10 15,0 C 20,7 C 49 % 1017,3 hPa 0,0 l/m 2 min 0 min 2,9 UV-I 733 W/m 5,1 km/h (1 Bft)
22.04.2013 13:12 15,1 C 20,7 C 48 % 1017,2 hPa 0,0 l/m 2 min 0 min 3,0 UV-I 740 W/m 10,3 km/h (2 Bft)
22.04.2013 13:14 15,2 C 20,7 C 48 % 1017,1 hPa 0,0 l/m 2 min 0 min 2,9 UV-I 729 W/m 12,9 km/h (3 Bft)
22.04.2013 13:16 15,2 C 20,1 C 48 % 1017,1 hPa 0,0 l/m 2 min 0 min 3,0 UV-I 733 W/m 10,3 km/h (2 Bft)
22.04.2013 13:18 15,3 C 20,1 C 47 % 1017,1 hPa 0,0 l/m 2 min 0 min 3,0 UV-I 738 W/m 10,3 km/h (2 Bft)
22.04.2013 13:20 15,3 C 20,1 C 49 % 1017,2 hPa 0,0 l/m 2 min 0 min 3,0 UV-I 737 W/m 10,3 km/h (2 Bft)
22.04.2013 13:22 15,4 C 19,0 C 47 % 1017,1 hPa 0,0 l/m 2 min 0 min 3,0 UV-I 742 W/m 18,0 km/h (3 Bft)
22.04.2013 13:24 15,4 C 19,0 C 46 % 1017,1 hPa 0,0 l/m 2 min 0 min 3,1 UV-I 747 W/m 7,7 km/h (2 Bft)
22.04.2013 13:26 15,4 C 19,0 C 45 % 1017,1 hPa 0,0 l/m 2 min 0 min 3,1 UV-I 745 W/m 15,4 km/h (3 Bft)
22.04.2013 13:28 15,4 C 19,0 C 45 % 1017,0 hPa 0,0 l/m 2 min 0 min 3,0 UV-I 728 W/m 15,4 km/h (3 Bft)
22.04.2013 13:30 15,5 C 19,6 C 45 % 1016,9 hPa 0,0 l/m 2 min 0 min 3,0 UV-I 740 W/m 10,3 km/h (2 Bft)
22.04.2013 13:32 15,6 C 19,0 C 46 % 1017,0 hPa 0,0 l/m 2 min 0 min 3,1 UV-I 747 W/m 10,3 km/h (2 Bft)
22.04.2013 13:34 15,6 C 18,4 C 45 % 1017,0 hPa 0,0 l/m 2 min 0 min 3,1 UV-I 754 W/m 7,7 km/h (2 Bft)
22.04.2013 13:36 15,7 C 17,9 C 46 % 1016,9 hPa 0,0 l/m 2 min 0 min 3,0 UV-I 740 W/m 7,7 km/h (2 Bft)
22.04.2013 13:38 15,7 C 17,9 C 44 % 1016,9 hPa 0,0 l/m 2 min 0 min 3,1 UV-I 747 W/m 12,9 km/h (3 Bft)
22.04.2013 13:40 15,7 C 17,3 C 43 % 1016,9 hPa 0,0 l/m 2 min 0 min 3,1 UV-I 745 W/m 10,3 km/h (2 Bft)
22.04.2013 13:42 15,8 C 17,3 C 45 % 1016,9 hPa 0,0 l/m 2 min 0 min 3,1 UV-I 752 W/m 7,7 km/h (2 Bft)
22.04.2013 13:44 15,8 C 16,8 C 45 % 1016,9 hPa 0,0 l/m 2 min 0 min 3,2 UV-I 761 W/m 15,4 km/h (3 Bft)
22.04.2013 13:46 15,9 C 16,8 C 44 % 1016,9 hPa 0,0 l/m 2 min 0 min 3,2 UV-I 761 W/m 10,3 km/h (2 Bft)
22.04.2013 13:48 15,8 C 16,2 C 44 % 1016,9 hPa 0,0 l/m 2 min 0 min 3,1 UV-I 758 W/m 15,4 km/h (3 Bft)
22.04.2013 13:50 15,8 C 16,2 C 44 % 1016,9 hPa 0,0 l/m 2 min 0 min 3,1 UV-I 759 W/m 10,3 km/h (2 Bft)
22.04.2013 13:52 15,9 C 16,8 C 45 % 1016,8 hPa 0,0 l/m 2 min 0 min 3,2 UV-I 761 W/m 7,7 km/h (2 Bft)
22.04.2013 13:54 15,9 C 16,8 C 44 % 1016,9 hPa 0,0 l/m 2 min 0 min 3,2 UV-I 763 W/m 2,6 km/h (1 Bft)
22.04.2013 13:56 15,9 C 16,8 C 43 % 1016,9 hPa 0,0 l/m 2 min 0 min 3,2 UV-I 765 W/m 12,9 km/h (3 Bft)
22.04.2013 13:58 15,9 C 16,8 C 44 % 1016,9 hPa 0,0 l/m 2 min 0 min 3,2 UV-I 758 W/m 7,7 km/h (2 Bft)
22.04.2013 14:00 16,0 C 17,3 C 42 % 1016,9 hPa 0,0 l/m 2 min 0 min 3,1 UV-I 759 W/m 10,3 km/h (2 Bft)
22.04.2013 14:02 16,1 C 16,8 C 42 % 1016,9 hPa 0,0 l/m 2 min 0 min 3,1 UV-I 751 W/m 12,9 km/h (3 Bft)
22.04.2013 14:04 16,2 C 16,8 C 41 % 1016,9 hPa 0,0 l/m 2 min 0 min 3,1 UV-I 749 W/m 7,7 km/h (2 Bft)
22.04.2013 14:06 16,2 C 16,8 C 41 % 1016,8 hPa 0,0 l/m 2 min 0 min 3,1 UV-I 754 W/m 2,6 km/h (1 Bft)
22.04.2013 14:08 16,3 C 16,2 C 39 % 1016,8 hPa 0,0 l/m 2 min 0 min 3,1 UV-I 745 W/m 7,7 km/h (2 Bft)
22.04.2013 14:10 16,3 C 16,2 C 39 % 1016,7 hPa 0,0 l/m 2 min 0 min 3,1 UV-I 754 W/m 2,6 km/h (1 Bft)
22.04.2013 14:12 16,3 C 16,8 C 41 % 1016,8 hPa 0,0 l/m 2 min 0 min 3,1 UV-I 754 W/m 7,7 km/h (2 Bft)
22.04.2013 14:14 16,4 C 17,3 C 42 % 1016,8 hPa 0,0 l/m 2 min 0 min 3,1 UV-I 749 W/m 7,7 km/h (2 Bft)
22.04.2013 14:16 16,5 C 17,3 C 42 % 1016,8 hPa 0,0 l/m 2 min 0 min 3,1 UV-I 745 W/m 5,1 km/h (1 Bft)
22.04.2013 14:18 16,6 C 16,8 C 42 % 1016,8 hPa 0,0 l/m 2 min 0 min 3,1 UV-I 756 W/m 10,3 km/h (2 Bft)
22.04.2013 14:20 16,6 C 17,3 C 42 % 1016,7 hPa 0,0 l/m 2 min 0 min 3,1 UV-I 758 W/m 2,6 km/h (1 Bft)
22.04.2013 14:22 16,6 C 16,8 C 41 % 1016,6 hPa 0,0 l/m 2 min 0 min 3,1 UV-I 752 W/m 2,6 km/h (1 Bft)
22.04.2013 14:24 16,7 C 17,3 C 41 % 1016,6 hPa 0,0 l/m 2 min 0 min 3,1 UV-I 758 W/m 7,7 km/h (2 Bft)
22.04.2013 14:26 16,7 C 17,3 C 41 % 1016,6 hPa 0,0 l/m 2 min 0 min 3,1 UV-I 756 W/m 7,7 km/h (2 Bft)
22.04.2013 14:28 16,8 C 17,3 C 41 % 1016,5 hPa 0,0 l/m 2 min 0 min 3,0 UV-I 744 W/m 12,9 km/h (3 Bft)
22.04.2013 14:30 16,8 C 17,3 C 40 % 1016,4 hPa 0,0 l/m 2 min 0 min 3,0 UV-I 735 W/m 12,9 km/h (3 Bft)
22.04.2013 14:32 16,8 C 16,8 C 42 % 1016,5 hPa 0,0 l/m 2 min 0 min 3,0 UV-I 731 W/m 7,7 km/h (2 Bft)
22.04.2013 14:34 16,8 C 16,8 C 41 % 1016,4 hPa 0,0 l/m 2 min 0 min 2,9 UV-I 726 W/m 2,6 km/h (1 Bft)
22.04.2013 14:36 16,9 C 16,2 C 41 % 1016,5 hPa 0,0 l/m 2 min 0 min 2,9 UV-I 719 W/m 0,0 km/h (0 Bft)
22.04.2013 14:38 16,9 C 16,8 C 44 % 1016,5 hPa 0,0 l/m 2 min 0 min 2,9 UV-I 724 W/m 2,6 km/h (1 Bft)
22.04.2013 14:40 17,1 C 16,8 C 42 % 1016,4 hPa 0,0 l/m 2 min 0 min 2,9 UV-I 726 W/m 7,7 km/h (2 Bft)
22.04.2013 14:42 17,1 C 16,8 C 41 % 1016,5 hPa 0,0 l/m 2 min 0 min 2,9 UV-I 733 W/m 12,9 km/h (3 Bft)
22.04.2013 14:44 17,0 C 16,2 C 40 % 1016,3 hPa 0,0 l/m 2 min 0 min 3,0 UV-I 740 W/m 10,3 km/h (2 Bft)
22.04.2013 14:46 17,0 C 16,8 C 41 % 1016,4 hPa 0,0 l/m 2 min 0 min 3,0 UV-I 744 W/m 12,9 km/h (3 Bft)
22.04.2013 14:48 17,0 C 16,8 C 36 % 1016,3 hPa 0,0 l/m 2 min 0 min 3,1 UV-I 761 W/m 15,4 km/h (3 Bft)
22.04.2013 14:50 17,0 C 16,8 C 35 % 1016,3 hPa 0,0 l/m 2 min 0 min 2,9 UV-I 747 W/m 15,4 km/h (3 Bft)
22.04.2013 14:52 16,9 C 16,8 C 34 % 1016,3 hPa 0,0 l/m 2 min 0 min 2,9 UV-I 733 W/m 12,9 km/h (3 Bft)
22.04.2013 14:54 16,8 C 16,8 C 35 % 1016,3 hPa 0,0 l/m 2 min 0 min 2,8 UV-I 717 W/m 12,9 km/h (3 Bft)
22.04.2013 14:56 16,8 C 16,8 C 35 % 1016,4 hPa 0,0 l/m 2 min 0 min 2,8 UV-I 710 W/m 10,3 km/h (2 Bft)
22.04.2013 14:58 16,8 C 16,8 C 36 % 1016,3 hPa 0,0 l/m 2 min 0 min 2,8 UV-I 721 W/m 15,4 km/h (3 Bft)
22.04.2013 15:00 16,8 C 16,8 C 38 % 1016,3 hPa 0,0 l/m 2 min 0 min 2,9 UV-I 744 W/m 12,9 km/h (3 Bft)
22.04.2013 15:02 16,8 C 16,8 C 38 % 1016,3 hPa 0,0 l/m 2 min 0 min 2,9 UV-I 740 W/m 10,3 km/h (2 Bft)
22.04.2013 15:04 16,9 C 16,8 C 37 % 1016,4 hPa 0,0 l/m 2 min 0 min 2,8 UV-I 726 W/m 10,3 km/h (2 Bft)
22.04.2013 15:06 16,9 C 16,2 C 35 % 1016,3 hPa 0,0 l/m 2 min 0 min 2,7 UV-I 719 W/m 7,7 km/h (2 Bft)
22.04.2013 15:08 16,9 C 16,2 C 36 % 1016,2 hPa 0,0 l/m 2 min 0 min 2,7 UV-I 724 W/m 10,3 km/h (2 Bft)
22.04.2013 15:10 16,9 C 16,2 C 36 % 1016,2 hPa 0,0 l/m 2 min 0 min 2,7 UV-I 717 W/m 0,0 km/h (0 Bft)
22.04.2013 15:12 17,0 C 16,8 C 38 % 1016,4 hPa 0,0 l/m 2 min 0 min 2,7 UV-I 719 W/m 7,7 km/h (2 Bft)
22.04.2013 15:14 17,0 C 16,8 C 38 % 1016,2 hPa 0,0 l/m 2 min 0 min 2,6 UV-I 680 W/m 2,6 km/h (1 Bft)
22.04.2013 15:16 17,1 C 17,3 C 39 % 1016,2 hPa 0,0 l/m 2 min 0 min 2,7 UV-I 722 W/m 12,9 km/h (3 Bft)
22.04.2013 15:18 17,2 C 16,8 C 39 % 1016,2 hPa 0,0 l/m 2 min 0 min 2,7 UV-I 719 W/m 10,3 km/h (2 Bft)
22.04.2013 15:20 17,2 C 16,8 C 38 % 1016,2 hPa 0,0 l/m 2 min 0 min 2,6 UV-I 703 W/m 15,4 km/h (3 Bft)
22.04.2013 15:22 17,3 C 17,3 C 40 % 1016,1 hPa 0,0 l/m 2 min 0 min 2,5 UV-I 693 W/m 15,4 km/h (3 Bft)
22.04.2013 15:24 17,3 C 16,8 C 37 % 1016,2 hPa 0,0 l/m 2 min 0 min 2,6 UV-I 698 W/m 10,3 km/h (2 Bft)
22.04.2013 15:26 17,3 C 16,8 C 36 % 1016,1 hPa 0,0 l/m 2 min 0 min 2,5 UV-I 689 W/m 7,7 km/h (2 Bft)
22.04.2013 15:28 17,3 C 16,8 C 37 % 1016,1 hPa 0,0 l/m 2 min 0 min 2,5 UV-I 687 W/m 2,6 km/h (1 Bft)
22.04.2013 15:30 17,3 C 16,8 C 38 % 1016,0 hPa 0,0 l/m 2 min 0 min 2,5 UV-I 701 W/m 12,9 km/h (3 Bft)
22.04.2013 15:32 17,4 C 16,8 C 38 % 1016,1 hPa 0,0 l/m 2 min 0 min 2,4 UV-I 654 W/m 7,7 km/h (2 Bft)
22.04.2013 15:34 17,4 C 16,8 C 36 % 1016,1 hPa 0,0 l/m 2 min 0 min 2,4 UV-I 705 W/m 12,9 km/h (3 Bft)
22.04.2013 15:36 17,5 C 16,8 C 37 % 1016,1 hPa 0,0 l/m 2 min 0 min 2,4 UV-I 691 W/m 2,6 km/h (1 Bft)
22.04.2013 15:38 17,5 C 16,8 C 36 % 1016,0 hPa 0,0 l/m 2 min 0 min 2,4 UV-I 679 W/m 18,0 km/h (3 Bft)
22.04.2013 15:40 17,6 C 16,8 C 38 % 1016,0 hPa 0,0 l/m 2 min 0 min 2,3 UV-I 654 W/m 7,7 km/h (2 Bft)
22.04.2013 15:42 17,6 C 16,8 C 38 % 1016,0 hPa 0,0 l/m 2 min 0 min 2,2 UV-I 636 W/m 10,3 km/h (2 Bft)
22.04.2013 15:44 17,6 C 16,8 C 37 % 1016,0 hPa 0,0 l/m 2 min 0 min 2,2 UV-I 633 W/m 18,0 km/h (3 Bft)
22.04.2013 15:46 17,6 C 16,8 C 36 % 1016,0 hPa 0,0 l/m 2 min 0 min 2,2 UV-I 629 W/m 12,9 km/h (3 Bft)
22.04.2013 15:48 17,5 C 16,8 C 36 % 1016,1 hPa 0,0 l/m 2 min 0 min 2,0 UV-I 540 W/m 12,9 km/h (3 Bft)
22.04.2013 15:50 17,5 C 16,8 C 36 % 1016,0 hPa 0,0 l/m 2 min 0 min 2,2 UV-I 652 W/m 5,1 km/h (1 Bft)
22.04.2013 15:52 17,4 C 16,8 C 36 % 1015,9 hPa 0,0 l/m 2 min 0 min 2,2 UV-I 668 W/m 5,1 km/h (1 Bft)
22.04.2013 15:54 17,5 C 16,8 C 35 % 1016,0 hPa 0,0 l/m 2 min 0 min 2,1 UV-I 656 W/m 5,1 km/h (1 Bft)
22.04.2013 15:56 17,5 C 16,2 C 37 % 1015,9 hPa 0,0 l/m 2 min 0 min 2,1 UV-I 659 W/m 2,6 km/h (1 Bft)
22.04.2013 15:58 17,6 C 16,8 C 38 % 1015,9 hPa 0,0 l/m 2 min 0 min 2,1 UV-I 656 W/m 18,0 km/h (3 Bft)
22.04.2013 16:00 17,6 C 16,8 C 35 % 1015,9 hPa 0,0 l/m 2 min 0 min 2,1 UV-I 661 W/m 12,9 km/h (3 Bft)
22.04.2013 16:02 17,7 C 16,8 C 36 % 1016,0 hPa 0,0 l/m 2 min 0 min 2,1 UV-I 657 W/m 15,4 km/h (3 Bft)
22.04.2013 16:04 17,7 C 17,3 C 36 % 1016,1 hPa 0,0 l/m 2 min 0 min 2,0 UV-I 645 W/m 7,7 km/h (2 Bft)
22.04.2013 16:06 17,7 C 16,8 C 34 % 1015,9 hPa 0,0 l/m 2 min 0 min 1,6 UV-I 654 W/m 7,7 km/h (2 Bft)
22.04.2013 16:08 17,8 C 16,8 C 35 % 1015,8 hPa 0,0 l/m 2 min 0 min 1,9 UV-I 617 W/m 12,9 km/h (3 Bft)
22.04.2013 16:10 17,7 C 16,8 C 36 % 1015,8 hPa 0,0 l/m 2 min 0 min 1,8 UV-I 612 W/m 10,3 km/h (2 Bft)
22.04.2013 16:12 17,8 C 16,8 C 35 % 1015,8 hPa 0,0 l/m 2 min 0 min 1,7 UV-I 575 W/m 10,3 km/h (2 Bft)
22.04.2013 16:14 17,8 C 16,8 C 36 % 1015,8 hPa 0,0 l/m 2 min 0 min 1,7 UV-I 599 W/m 10,3 km/h (2 Bft)
22.04.2013 16:16 17,9 C 16,8 C 37 % 1015,8 hPa 0,0 l/m 2 min 0 min 1,8 UV-I 622 W/m 2,6 km/h (1 Bft)
22.04.2013 16:18 17,9 C 16,8 C 37 % 1015,6 hPa 0,0 l/m 2 min 0 min 1,9 UV-I 631 W/m 7,7 km/h (2 Bft)
22.04.2013 16:20 17,9 C 17,3 C 36 % 1015,5 hPa 0,0 l/m 2 min 0 min 1,8 UV-I 629 W/m 12,9 km/h (3 Bft)
22.04.2013 16:22 17,9 C 16,8 C 35 % 1015,6 hPa 0,0 l/m 2 min 0 min 1,8 UV-I 612 W/m 10,3 km/h (2 Bft)
22.04.2013 16:24 17,9 C 16,8 C 34 % 1015,6 hPa 0,0 l/m 2 min 0 min 1,8 UV-I 610 W/m 15,4 km/h (3 Bft)
22.04.2013 16:26 17,8 C 16,8 C 33 % 1015,6 hPa 0,0 l/m 2 min 0 min 1,7 UV-I 598 W/m 12,9 km/h (3 Bft)
22.04.2013 16:28 17,8 C 16,8 C 34 % 1015,4 hPa 0,0 l/m 2 min 0 min 1,6 UV-I 589 W/m 2,6 km/h (1 Bft)
22.04.2013 16:30 17,9 C 16,8 C 34 % 1015,5 hPa 0,0 l/m 2 min 0 min 1,6 UV-I 592 W/m 10,3 km/h (2 Bft)
22.04.2013 16:32 17,9 C 16,8 C 35 % 1015,4 hPa 0,0 l/m 2 min 0 min 1,6 UV-I 582 W/m 12,9 km/h (3 Bft)
22.04.2013 16:34 17,8 C 16,2 C 35 % 1015,5 hPa 0,0 l/m 2 min 0 min 1,5 UV-I 585 W/m 7,7 km/h (2 Bft)
22.04.2013 16:36 17,8 C 16,8 C 35 % 1015,5 hPa 0,0 l/m 2 min 0 min 1,4 UV-I 531 W/m 10,3 km/h (2 Bft)
22.04.2013 16:38 17,9 C 16,8 C 37 % 1015,5 hPa 0,0 l/m 2 min 0 min 1,5 UV-I 566 W/m 5,1 km/h (1 Bft)
22.04.2013 16:40 18,0 C 16,8 C 35 % 1015,5 hPa 0,0 l/m 2 min 0 min 1,4 UV-I 570 W/m 12,9 km/h (3 Bft)
22.04.2013 16:42 18,0 C 16,8 C 36 % 1015,4 hPa 0,0 l/m 2 min 0 min 1,4 UV-I 570 W/m 2,6 km/h (1 Bft)
22.04.2013 16:44 18,1 C 16,8 C 35 % 1015,4 hPa 0,0 l/m 2 min 0 min 1,4 UV-I 568 W/m 10,3 km/h (2 Bft)
22.04.2013 16:46 18,1 C 16,8 C 35 % 1015,5 hPa 0,0 l/m 2 min 0 min 1,3 UV-I 554 W/m 15,4 km/h (3 Bft)
22.04.2013 16:48 18,0 C 16,8 C 34 % 1015,5 hPa 0,0 l/m 2 min 0 min 1,3 UV-I 541 W/m 15,4 km/h (3 Bft)
22.04.2013 16:50 18,0 C 16,8 C 35 % 1015,4 hPa 0,0 l/m 2 min 0 min 1,3 UV-I 538 W/m 5,1 km/h (1 Bft)
22.04.2013 16:52 17,9 C 16,8 C 33 % 1015,4 hPa 0,0 l/m 2 min 0 min 1,2 UV-I 540 W/m 7,7 km/h (2 Bft)
22.04.2013 16:54 17,9 C 16,8 C 33 % 1015,5 hPa 0,0 l/m 2 min 0 min 1,2 UV-I 538 W/m 15,4 km/h (3 Bft)
22.04.2013 16:56 17,9 C 16,8 C 34 % 1015,3 hPa 0,0 l/m 2 min 0 min 1,2 UV-I 531 W/m 2,6 km/h (1 Bft)
22.04.2013 16:58 17,9 C 16,8 C 34 % 1015,4 hPa 0,0 l/m 2 min 0 min 1,1 UV-I 520 W/m 2,6 km/h (1 Bft)
22.04.2013 17:00 18,0 C 16,8 C 34 % 1015,5 hPa 0,0 l/m 2 min 0 min 1,1 UV-I 522 W/m 5,1 km/h (1 Bft)
22.04.2013 17:02 18,0 C 16,8 C 34 % 1015,5 hPa 0,0 l/m 2 min 0 min 1,1 UV-I 494 W/m 10,3 km/h (2 Bft)
22.04.2013 17:04 18,1 C 16,8 C 34 % 1015,4 hPa 0,0 l/m 2 min 0 min 1,1 UV-I 517 W/m 2,6 km/h (1 Bft)
22.04.2013 17:06 18,1 C 16,8 C 32 % 1015,4 hPa 0,0 l/m 2 min 0 min 1,1 UV-I 520 W/m 15,4 km/h (3 Bft)
22.04.2013 17:08 18,0 C 16,8 C 32 % 1015,4 hPa 0,0 l/m 2 min 0 min 1,0 UV-I 492 W/m 7,7 km/h (2 Bft)
22.04.2013 17:10 18,0 C 16,2 C 31 % 1015,3 hPa 0,0 l/m 2 min 0 min 1,0 UV-I 497 W/m 10,3 km/h (2 Bft)
22.04.2013 17:12 18,0 C 16,2 C 33 % 1015,3 hPa 0,0 l/m 2 min 0 min 0,9 UV-I 504 W/m 5,1 km/h (1 Bft)
22.04.2013 17:14 18,0 C 16,2 C 34 % 1015,3 hPa 0,0 l/m 2 min 0 min 0,9 UV-I 503 W/m 5,1 km/h (1 Bft)
22.04.2013 17:16 18,0 C 16,8 C 33 % 1015,3 hPa 0,0 l/m 2 min 0 min 0,9 UV-I 496 W/m 2,6 km/h (1 Bft)
22.04.2013 17:18 18,0 C 16,8 C 33 % 1015,3 hPa 0,0 l/m 2 min 0 min 0,9 UV-I 494 W/m 12,9 km/h (3 Bft)
22.04.2013 17:20 18,0 C 16,2 C 33 % 1015,3 hPa 0,0 l/m 2 min 0 min 0,9 UV-I 478 W/m 12,9 km/h (3 Bft)
22.04.2013 17:22 18,0 C 16,2 C 32 % 1015,3 hPa 0,0 l/m 2 min 0 min 0,8 UV-I 452 W/m 12,9 km/h (3 Bft)
22.04.2013 17:24 17,9 C 16,2 C 32 % 1015,4 hPa 0,0 l/m 2 min 0 min 0,8 UV-I 466 W/m 20,6 km/h (4 Bft)
22.04.2013 17:26 17,9 C 16,2 C 33 % 1015,3 hPa 0,0 l/m 2 min 0 min 0,6 UV-I 320 W/m 7,7 km/h (2 Bft)
22.04.2013 17:28 17,9 C 16,2 C 34 % 1015,4 hPa 0,0 l/m 2 min 0 min 0,6 UV-I 403 W/m 12,9 km/h (3 Bft)
22.04.2013 17:30 17,9 C 16,2 C 34 % 1015,3 hPa 0,0 l/m 2 min 0 min 0,7 UV-I 445 W/m 10,3 km/h (2 Bft)
22.04.2013 17:32 17,9 C 16,2 C 33 % 1015,4 hPa 0,0 l/m 2 min 0 min 0,6 UV-I 434 W/m 10,3 km/h (2 Bft)
22.04.2013 17:34 17,8 C 16,2 C 32 % 1015,4 hPa 0,0 l/m 2 min 0 min 0,6 UV-I 427 W/m 10,3 km/h (2 Bft)
22.04.2013 17:36 17,8 C 16,2 C 32 % 1015,4 hPa 0,0 l/m 2 min 0 min 0,6 UV-I 438 W/m 15,4 km/h (3 Bft)
22.04.2013 17:38 17,8 C 16,2 C 33 % 1015,5 hPa 0,0 l/m 2 min 0 min 0,6 UV-I 376 W/m 15,4 km/h (3 Bft)
22.04.2013 17:40 17,8 C 16,2 C 34 % 1015,6 hPa 0,0 l/m 2 min 0 min 0,6 UV-I 278 W/m 7,7 km/h (2 Bft)
22.04.2013 17:42 17,7 C 15,7 C 33 % 1015,5 hPa 0,0 l/m 2 min 0 min 0,0 UV-I 283 W/m 10,3 km/h (2 Bft)
22.04.2013 17:44 17,7 C 15,7 C 32 % 1015,4 hPa 0,0 l/m 2 min 0 min 0,0 UV-I 301 W/m 7,7 km/h (2 Bft)
22.04.2013 17:46 17,6 C 15,7 C 33 % 1015,5 hPa 0,0 l/m 2 min 0 min 0,0 UV-I 290 W/m 18,0 km/h (3 Bft)
22.04.2013 17:48 17,6 C 15,7 C 32 % 1015,4 hPa 0,0 l/m 2 min 0 min 0,0 UV-I 329 W/m 10,3 km/h (2 Bft)
22.04.2013 17:50 17,6 C 15,7 C 31 % 1015,5 hPa 0,0 l/m 2 min 0 min 0,0 UV-I 294 W/m 7,7 km/h (2 Bft)
22.04.2013 17:52 17,6 C 15,7 C 31 % 1015,4 hPa 0,0 l/m 2 min 0 min 0,0 UV-I 283 W/m 5,1 km/h (1 Bft)
22.04.2013 17:54 17,5 C 15,7 C 31 % 1015,4 hPa 0,0 l/m 2 min 0 min 0,0 UV-I 246 W/m 7,7 km/h (2 Bft)
22.04.2013 17:56 17,4 C 15,7 C 31 % 1015,4 hPa 0,0 l/m 2 min 0 min 0,0 UV-I 260 W/m 12,9 km/h (3 Bft)
22.04.2013 17:58 17,3 C 15,7 C 33 % 1015,5 hPa 0,0 l/m 0 min 0 min 0,0 UV-I 158 W/m 10,3 km/h (2 Bft)
22.04.2013 18:00 17,2 C 15,7 C 33 % 1015,5 hPa 0,0 l/m 0 min 0 min 0,0 UV-I 195 W/m 2,6 km/h (1 Bft)
22.04.2013 18:02 17,2 C 15,1 C 33 % 1015,6 hPa 0,0 l/m 0 min 0 min 0,0 UV-I 214 W/m 10,3 km/h (2 Bft)
22.04.2013 18:04 17,1 C 15,1 C 34 % 1015,5 hPa 0,0 l/m 0 min 0 min 0,0 UV-I 148 W/m 7,7 km/h (2 Bft)
22.04.2013 18:06 17,1 C 15,1 C 34 % 1015,5 hPa 0,0 l/m 0 min 0 min 0,0 UV-I 199 W/m 12,9 km/h (3 Bft)
22.04.2013 18:08 17,1 C 15,1 C 35 % 1015,4 hPa 0,0 l/m 2 min 0 min 0,0 UV-I 338 W/m 15,4 km/h (3 Bft)
22.04.2013 18:10 17,0 C 15,1 C 33 % 1015,4 hPa 0,0 l/m 2 min 0 min 0,0 UV-I 309 W/m 7,7 km/h (2 Bft)
22.04.2013 18:12 17,0 C 15,1 C 33 % 1015,4 hPa 0,0 l/m 0 min 0 min 0,0 UV-I 174 W/m 2,6 km/h (1 Bft)
22.04.2013 18:14 17,0 C 15,1 C 34 % 1015,4 hPa 0,0 l/m 0 min 0 min 0,0 UV-I 195 W/m 0,0 km/h (0 Bft)
22.04.2013 18:16 17,0 C 15,1 C 33 % 1015,4 hPa 0,0 l/m 2 min 0 min 0,0 UV-I 287 W/m 15,4 km/h (3 Bft)
22.04.2013 18:18 17,0 C 15,1 C 34 % 1015,4 hPa 0,0 l/m 2 min 0 min 0,0 UV-I 272 W/m 12,9 km/h (3 Bft)
22.04.2013 18:20 17,0 C 15,7 C 34 % 1015,4 hPa 0,0 l/m 2 min 0 min 0,0 UV-I 207 W/m 2,6 km/h (1 Bft)
22.04.2013 18:22 17,0 C 15,7 C 34 % 1015,4 hPa 0,0 l/m 0 min 0 min 0,0 UV-I 178 W/m 12,9 km/h (3 Bft)
22.04.2013 18:24 17,0 C 15,7 C 35 % 1015,4 hPa 0,0 l/m 0 min 0 min 0,0 UV-I 176 W/m 5,1 km/h (1 Bft)
22.04.2013 18:26 17,0 C 15,7 C 34 % 1015,4 hPa 0,0 l/m 0 min 0 min 0,0 UV-I 121 W/m 10,3 km/h (2 Bft)
22.04.2013 18:28 16,9 C 15,1 C 33 % 1015,4 hPa 0,0 l/m 0 min 0 min 0,0 UV-I 127 W/m 7,7 km/h (2 Bft)
22.04.2013 18:30 16,9 C 15,1 C 34 % 1015,4 hPa 0,0 l/m 2 min 0 min 0,0 UV-I 186 W/m 0,0 km/h (0 Bft)
22.04.2013 18:32 16,9 C 15,1 C 34 % 1015,5 hPa 0,0 l/m 0 min 0 min 0,0 UV-I 125 W/m 0,0 km/h (0 Bft)
22.04.2013 18:34 17,0 C 15,1 C 35 % 1015,4 hPa 0,0 l/m 2 min 0 min 0,0 UV-I 257 W/m 12,9 km/h (3 Bft)
22.04.2013 18:36 17,0 C 15,1 C 33 % 1015,5 hPa 0,0 l/m 2 min 0 min 0,0 UV-I 185 W/m 10,3 km/h (2 Bft)
22.04.2013 18:38 17,0 C 15,1 C 34 % 1015,4 hPa 0,0 l/m 0 min 0 min 0,0 UV-I 148 W/m 2,6 km/h (1 Bft)
22.04.2013 18:40 17,0 C 15,1 C 34 % 1015,4 hPa 0,0 l/m 2 min 0 min 0,0 UV-I 193 W/m 5,1 km/h (1 Bft)
22.04.2013 18:42 16,9 C 15,1 C 33 % 1015,5 hPa 0,0 l/m 0 min 0 min 0,0 UV-I 114 W/m 15,4 km/h (3 Bft)
22.04.2013 18:44 16,9 C 15,1 C 33 % 1015,5 hPa 0,0 l/m 0 min 0 min 0,0 UV-I 81 W/m 10,3 km/h (2 Bft)
22.04.2013 18:46 16,9 C 15,1 C 34 % 1015,5 hPa 0,0 l/m 0 min 0 min 0,0 UV-I 120 W/m 12,9 km/h (3 Bft)
22.04.2013 18:48 16,9 C 15,1 C 33 % 1015,5 hPa 0,0 l/m 0 min 0 min 0,0 UV-I 135 W/m 7,7 km/h (2 Bft)
22.04.2013 18:50 16,8 C 14,6 C 33 % 1015,5 hPa 0,0 l/m 0 min 0 min 0,0 UV-I 98 W/m 7,7 km/h (2 Bft)
22.04.2013 18:52 16,8 C 14,6 C 33 % 1015,5 hPa 0,0 l/m 0 min 0 min 0,0 UV-I 76 W/m 5,1 km/h (1 Bft)
22.04.2013 18:54 16,7 C 14,6 C 33 % 1015,4 hPa 0,0 l/m 0 min 0 min 0,0 UV-I 114 W/m 12,9 km/h (3 Bft)
22.04.2013 18:56 16,7 C 14,6 C 33 % 1015,5 hPa 0,0 l/m 0 min 0 min 0,0 UV-I 142 W/m 2,6 km/h (1 Bft)
22.04.2013 18:58 16,6 C 14,6 C 32 % 1015,4 hPa 0,0 l/m 0 min 0 min 0,0 UV-I 91 W/m 7,7 km/h (2 Bft)
22.04.2013 19:00 16,6 C 14,6 C 33 % 1015,5 hPa 0,0 l/m 2 min 0 min 0,0 UV-I 172 W/m 2,6 km/h (1 Bft)
22.04.2013 19:02 16,5 C 14,6 C 33 % 1015,5 hPa 0,0 l/m 2 min 0 min 0,0 UV-I 139 W/m 12,9 km/h (3 Bft)
22.04.2013 19:04 16,4 C 14,6 C 33 % 1015,5 hPa 0,0 l/m 0 min 0 min 0,0 UV-I 84 W/m 2,6 km/h (1 Bft)
22.04.2013 19:06 16,4 C 14,0 C 35 % 1015,5 hPa 0,0 l/m 0 min 0 min 0,0 UV-I 62 W/m 0,0 km/h (0 Bft)
22.04.2013 19:08 16,3 C 14,0 C 36 % 1015,5 hPa 0,0 l/m 0 min 0 min 0,0 UV-I 51 W/m 0,0 km/h (0 Bft)
22.04.2013 19:10 16,3 C 14,0 C 36 % 1015,6 hPa 0,0 l/m 0 min 0 min 0,0 UV-I 51 W/m 10,3 km/h (2 Bft)
22.04.2013 19:12 16,3 C 14,0 C 36 % 1015,6 hPa 0,0 l/m 0 min 0 min 0,0 UV-I 51 W/m 0,0 km/h (0 Bft)
22.04.2013 19:14 16,3 C 14,0 C 36 % 1015,6 hPa 0,0 l/m 0 min 0 min 0,0 UV-I 49 W/m 15,4 km/h (3 Bft)
22.04.2013 19:16 16,2 C 14,0 C 37 % 1015,6 hPa 0,0 l/m 0 min 0 min 0,0 UV-I 49 W/m 10,3 km/h (2 Bft)
22.04.2013 19:18 16,1 C 14,0 C 37 % 1015,6 hPa 0,0 l/m 0 min 0 min 0,0 UV-I 47 W/m 0,0 km/h (0 Bft)
22.04.2013 19:20 16,1 C 13,4 C 37 % 1015,7 hPa 0,0 l/m 0 min 0 min 0,0 UV-I 56 W/m 2,6 km/h (1 Bft)
22.04.2013 19:22 16,1 C 13,4 C 36 % 1015,6 hPa 0,0 l/m 0 min 0 min 0,0 UV-I 39 W/m 10,3 km/h (2 Bft)
22.04.2013 19:24 15,9 C 13,4 C 36 % 1015,7 hPa 0,0 l/m 0 min 0 min 0,0 UV-I 33 W/m 2,6 km/h (1 Bft)
22.04.2013 19:26 15,8 C 13,4 C 36 % 1015,7 hPa 0,0 l/m 0 min 0 min 0,0 UV-I 32 W/m 2,6 km/h (1 Bft)
22.04.2013 19:28 15,7 C 12,9 C 36 % 1015,6 hPa 0,0 l/m 0 min 0 min 0,0 UV-I 30 W/m 10,3 km/h (2 Bft)
22.04.2013 19:30 15,6 C 12,9 C 35 % 1015,7 hPa 0,0 l/m 0 min 0 min 0,0 UV-I 28 W/m 5,1 km/h (1 Bft)
22.04.2013 19:32 15,6 C 12,9 C 35 % 1015,7 hPa 0,0 l/m 0 min 0 min 0,0 UV-I 28 W/m 5,1 km/h (1 Bft)
22.04.2013 19:34 15,4 C 12,9 C 34 % 1015,7 hPa 0,0 l/m 0 min 0 min 0,0 UV-I 26 W/m 2,6 km/h (1 Bft)
22.04.2013 19:36 15,3 C 12,9 C 35 % 1015,7 hPa 0,0 l/m 0 min 0 min 0,0 UV-I 26 W/m 0,0 km/h (0 Bft)
22.04.2013 19:38 15,2 C 12,3 C 36 % 1015,7 hPa 0,0 l/m 0 min 0 min 0,0 UV-I 26 W/m 0,0 km/h (0 Bft)
22.04.2013 19:40 15,2 C 12,3 C 36 % 1015,7 hPa 0,0 l/m 0 min 0 min 0,0 UV-I 26 W/m 0,0 km/h (0 Bft)
22.04.2013 19:42 15,1 C 12,3 C 36 % 1015,8 hPa 0,0 l/m 0 min 0 min 0,0 UV-I 28 W/m 2,6 km/h (1 Bft)
22.04.2013 19:44 15,0 C 12,3 C 36 % 1015,7 hPa 0,0 l/m 0 min 0 min 0,0 UV-I 30 W/m 0,0 km/h (0 Bft)
22.04.2013 19:46 15,0 C 12,3 C 36 % 1015,7 hPa 0,0 l/m 0 min 0 min 0,0 UV-I 32 W/m 0,0 km/h (0 Bft)
22.04.2013 19:48 15,0 C 12,3 C 37 % 1015,8 hPa 0,0 l/m 0 min 0 min 0,0 UV-I 32 W/m 2,6 km/h (1 Bft)
22.04.2013 19:50 15,0 C 12,3 C 37 % 1015,8 hPa 0,0 l/m 0 min 0 min 0,0 UV-I 32 W/m 0,0 km/h (0 Bft)
22.04.2013 19:52 15,0 C 12,3 C 37 % 1015,8 hPa 0,0 l/m 0 min 0 min 0,0 UV-I 32 W/m 0,0 km/h (0 Bft)
22.04.2013 19:54 14,9 C 12,3 C 37 % 1015,8 hPa 0,0 l/m 0 min 0 min 0,0 UV-I 32 W/m 7,7 km/h (2 Bft)
22.04.2013 19:56 14,8 C 12,3 C 39 % 1015,9 hPa 0,0 l/m 0 min 0 min 0,0 UV-I 32 W/m 0,0 km/h (0 Bft)
22.04.2013 19:58 14,7 C 11,8 C 39 % 1015,9 hPa 0,0 l/m 0 min 0 min 0,0 UV-I 28 W/m 0,0 km/h (0 Bft)
22.04.2013 20:00 14,7 C 11,8 C 39 % 1015,9 hPa 0,0 l/m 0 min 0 min 0,0 UV-I 23 W/m 0,0 km/h (0 Bft)
22.04.2013 20:02 14,7 C 11,8 C 40 % 1016,1 hPa 0,0 l/m 0 min 0 min 0,0 UV-I 19 W/m 0,0 km/h (0 Bft)
22.04.2013 20:04 14,6 C 11,8 C 40 % 1016,0 hPa 0,0 l/m 0 min 0 min 0,0 UV-I 16 W/m 0,0 km/h (0 Bft)
22.04.2013 20:06 14,5 C 11,2 C 40 % 1016,0 hPa 0,0 l/m 0 min 0 min 0,0 UV-I 14 W/m 0,0 km/h (0 Bft)
22.04.2013 20:08 14,4 C 11,2 C 40 % 1016,0 hPa 0,0 l/m 0 min 0 min 0,0 UV-I 14 W/m 0,0 km/h (0 Bft)
22.04.2013 20:10 14,4 C 11,2 C 40 % 1016,0 hPa 0,0 l/m 0 min 0 min 0,0 UV-I 12 W/m 0,0 km/h (0 Bft)
22.04.2013 20:12 14,3 C 11,2 C 41 % 1016,0 hPa 0,0 l/m 0 min 0 min 0,0 UV-I 12 W/m 0,0 km/h (0 Bft)
22.04.2013 20:14 14,3 C 10,7 C 41 % 1016,1 hPa 0,0 l/m 0 min 0 min 0,0 UV-I 12 W/m 0,0 km/h (0 Bft)
22.04.2013 20:16 14,2 C 10,7 C 41 % 1016,1 hPa 0,0 l/m 0 min 0 min 0,0 UV-I 12 W/m 0,0 km/h (0 Bft)
22.04.2013 20:18 14,2 C 10,7 C 41 % 1016,0 hPa 0,0 l/m 0 min 0 min 0,0 UV-I 11 W/m 0,0 km/h (0 Bft)
22.04.2013 20:20 14,1 C 10,7 C 41 % 1016,0 hPa 0,0 l/m 0 min 0 min 0,0 UV-I 11 W/m 0,0 km/h (0 Bft)
22.04.2013 20:22 14,0 C 10,7 C 41 % 1016,1 hPa 0,0 l/m 0 min 0 min 0,0 UV-I 11 W/m 0,0 km/h (0 Bft)
22.04.2013 20:24 13,9 C 10,7 C 41 % 1016,1 hPa 0,0 l/m 0 min 0 min 0,0 UV-I 9 W/m 0,0 km/h (0 Bft)
22.04.2013 20:26 13,9 C 10,7 C 41 % 1016,0 hPa 0,0 l/m 0 min 0 min 0,0 UV-I 9 W/m 0,0 km/h (0 Bft)
22.04.2013 20:28 13,8 C 10,7 C 41 % 1015,9 hPa 0,0 l/m 0 min 0 min 0,0 UV-I 7 W/m 0,0 km/h (0 Bft)
22.04.2013 20:30 13,8 C 10,1 C 42 % 1016,0 hPa 0,0 l/m 0 min 0 min 0,0 UV-I 7 W/m 0,0 km/h (0 Bft)
22.04.2013 20:32 13,8 C 10,1 C 42 % 1016,0 hPa 0,0 l/m 0 min 0 min 0,0 UV-I 7 W/m 0,0 km/h (0 Bft)
22.04.2013 20:34 13,7 C 10,1 C 42 % 1016,0 hPa 0,0 l/m 0 min 0 min 0,0 UV-I 5 W/m 0,0 km/h (0 Bft)
22.04.2013 20:36 13,7 C 10,1 C 43 % 1016,1 hPa 0,0 l/m 0 min 0 min 0,0 UV-I 0 W/m 0,0 km/h (0 Bft)
22.04.2013 20:38 13,7 C 9,6 C 43 % 1016,1 hPa 0,0 l/m 0 min 0 min 0,0 UV-I 0 W/m 0,0 km/h (0 Bft)
22.04.2013 20:40 13,6 C 9,6 C 43 % 1016,1 hPa 0,0 l/m 0 min 0 min 0,0 UV-I 0 W/m 0,0 km/h (0 Bft)
22.04.2013 20:42 13,6 C 9,6 C 43 % 1016,1 hPa 0,0 l/m 0 min 0 min 0,0 UV-I 0 W/m 0,0 km/h (0 Bft)
22.04.2013 20:44 13,4 C 9,6 C 43 % 1016,1 hPa 0,0 l/m 0 min 0 min 0,0 UV-I 0 W/m 0,0 km/h (0 Bft)
22.04.2013 20:46 13,4 C 9,6 C 43 % 1016,1 hPa 0,0 l/m 0 min 0 min 0,0 UV-I 0 W/m 0,0 km/h (0 Bft)
22.04.2013 20:48 13,4 C 9,6 C 43 % 1016,1 hPa 0,0 l/m 0 min 0 min 0,0 UV-I 0 W/m 0,0 km/h (0 Bft)
22.04.2013 20:50 13,3 C 9,6 C 43 % 1016,1 hPa 0,0 l/m 0 min 0 min 0,0 UV-I 0 W/m 0,0 km/h (0 Bft)
22.04.2013 20:52 13,3 C 9,0 C 43 % 1016,1 hPa 0,0 l/m 0 min 0 min 0,0 UV-I 0 W/m 0,0 km/h (0 Bft)
22.04.2013 20:54 13,2 C 9,0 C 43 % 1016,1 hPa 0,0 l/m 0 min 0 min 0,0 UV-I 0 W/m 0,0 km/h (0 Bft)
22.04.2013 20:56 13,2 C 9,0 C 43 % 1016,1 hPa 0,0 l/m 0 min 0 min 0,0 UV-I 0 W/m 0,0 km/h (0 Bft)
22.04.2013 20:58 13,1 C 9,0 C 43 % 1016,1 hPa 0,0 l/m 0 min 0 min 0,0 UV-I 0 W/m 0,0 km/h (0 Bft)
22.04.2013 21:00 13,1 C 9,0 C 43 % 1016,0 hPa 0,0 l/m 0 min 0 min 0,0 UV-I 0 W/m 0,0 km/h (0 Bft)
22.04.2013 21:02 13,0 C 9,0 C 43 % 1016,1 hPa 0,0 l/m 0 min 0 min 0,0 UV-I 0 W/m 0,0 km/h (0 Bft)
22.04.2013 21:04 12,9 C 9,0 C 43 % 1016,1 hPa 0,0 l/m 0 min 0 min 0,0 UV-I 0 W/m 0,0 km/h (0 Bft)
22.04.2013 21:06 12,8 C 9,0 C 43 % 1016,1 hPa 0,0 l/m 0 min 0 min 0,0 UV-I 0 W/m 0,0 km/h (0 Bft)
22.04.2013 21:08 12,8 C 9,0 C 43 % 1016,1 hPa 0,0 l/m 0 min 0 min 0,0 UV-I 0 W/m 0,0 km/h (0 Bft)
22.04.2013 21:10 12,8 C 9,0 C 43 % 1016,1 hPa 0,0 l/m 0 min 0 min 0,0 UV-I 0 W/m 0,0 km/h (0 Bft)
22.04.2013 21:12 12,7 C 8,4 C 44 % 1016,1 hPa 0,0 l/m 0 min 0 min 0,0 UV-I 0 W/m 0,0 km/h (0 Bft)
22.04.2013 21:14 12,7 C 8,4 C 44 % 1016,1 hPa 0,0 l/m 0 min 0 min 0,0 UV-I 0 W/m 0,0 km/h (0 Bft)
22.04.2013 21:16 12,6 C 9,0 C 43 % 1016,1 hPa 0,0 l/m 0 min 0 min 0,0 UV-I 0 W/m 0,0 km/h (0 Bft)
22.04.2013 21:18 12,5 C 9,0 C 44 % 1016,2 hPa 0,0 l/m 0 min 0 min 0,0 UV-I 0 W/m 0,0 km/h (0 Bft)
22.04.2013 21:20 12,4 C 9,0 C 44 % 1016,3 hPa 0,0 l/m 0 min 0 min 0,0 UV-I 0 W/m 0,0 km/h (0 Bft)
22.04.2013 21:22 12,4 C 9,0 C 44 % 1016,3 hPa 0,0 l/m 0 min 0 min 0,0 UV-I 0 W/m 0,0 km/h (0 Bft)
22.04.2013 21:24 12,3 C 9,0 C 45 % 1016,2 hPa 0,0 l/m 0 min 0 min 0,0 UV-I 0 W/m 0,0 km/h (0 Bft)
22.04.2013 21:26 12,3 C 9,0 C 45 % 1016,2 hPa 0,0 l/m 0 min 0 min 0,0 UV-I 0 W/m 0,0 km/h (0 Bft)
22.04.2013 21:28 12,2 C 9,0 C 45 % 1016,1 hPa 0,0 l/m 0 min 0 min 0,0 UV-I 0 W/m 0,0 km/h (0 Bft)
22.04.2013 21:30 12,2 C 9,0 C 45 % 1016,1 hPa 0,0 l/m 0 min 0 min 0,0 UV-I 0 W/m 0,0 km/h (0 Bft)
22.04.2013 21:32 12,2 C 9,0 C 45 % 1016,2 hPa 0,0 l/m 0 min 0 min 0,0 UV-I 0 W/m 0,0 km/h (0 Bft)
22.04.2013 21:34 12,1 C 9,0 C 45 % 1016,2 hPa 0,0 l/m 0 min 0 min 0,0 UV-I 0 W/m 0,0 km/h (0 Bft)
22.04.2013 21:36 12,1 C 9,0 C 45 % 1016,2 hPa 0,0 l/m 0 min 0 min 0,0 UV-I 0 W/m 0,0 km/h (0 Bft)
22.04.2013 21:38 12,1 C 9,0 C 45 % 1016,1 hPa 0,0 l/m 0 min 0 min 0,0 UV-I 0 W/m 0,0 km/h (0 Bft)
22.04.2013 21:40 12,0 C 9,0 C 45 % 1016,1 hPa 0,0 l/m 0 min 0 min 0,0 UV-I 0 W/m 0,0 km/h (0 Bft)
22.04.2013 21:42 11,9 C 8,4 C 46 % 1016,1 hPa 0,0 l/m 0 min 0 min 0,0 UV-I 0 W/m 0,0 km/h (0 Bft)
22.04.2013 21:44 11,9 C 8,4 C 46 % 1016,2 hPa 0,0 l/m 0 min 0 min 0,0 UV-I 0 W/m 0,0 km/h (0 Bft)
22.04.2013 21:46 11,9 C 8,4 C 46 % 1016,1 hPa 0,0 l/m 0 min 0 min 0,0 UV-I 0 W/m 0,0 km/h (0 Bft)
22.04.2013 21:48 11,8 C 8,4 C 46 % 1016,2 hPa 0,0 l/m 0 min 0 min 0,0 UV-I 0 W/m 0,0 km/h (0 Bft)
22.04.2013 21:50 11,8 C 8,4 C 46 % 1016,2 hPa 0,0 l/m 0 min 0 min 0,0 UV-I 0 W/m 0,0 km/h (0 Bft)
22.04.2013 21:52 11,8 C 8,4 C 46 % 1016,3 hPa 0,0 l/m 0 min 0 min 0,0 UV-I 0 W/m 2,6 km/h (1 Bft)
22.04.2013 21:54 11,8 C 8,4 C 46 % 1016,3 hPa 0,0 l/m 0 min 0 min 0,0 UV-I 0 W/m 0,0 km/h (0 Bft)
22.04.2013 21:56 11,7 C 8,4 C 46 % 1016,4 hPa 0,0 l/m 0 min 0 min 0,0 UV-I 0 W/m 0,0 km/h (0 Bft)
22.04.2013 21:58 11,7 C 8,4 C 46 % 1016,4 hPa 0,0 l/m 0 min 0 min 0,0 UV-I 0 W/m 0,0 km/h (0 Bft)
22.04.2013 22:00 11,7 C 7,9 C 46 % 1016,3 hPa 0,0 l/m 0 min 0 min 0,0 UV-I 0 W/m 0,0 km/h (0 Bft)
22.04.2013 22:02 11,6 C 8,4 C 46 % 1016,4 hPa 0,0 l/m 0 min 0 min 0,0 UV-I 0 W/m 0,0 km/h (0 Bft)
22.04.2013 22:04 11,6 C 8,4 C 47 % 1016,5 hPa 0,0 l/m 0 min 0 min 0,0 UV-I 0 W/m 0,0 km/h (0 Bft)
22.04.2013 22:06 11,6 C 8,4 C 47 % 1016,5 hPa 0,0 l/m 0 min 0 min 0,0 UV-I 0 W/m 0,0 km/h (0 Bft)
22.04.2013 22:08 11,5 C 8,4 C 47 % 1016,5 hPa 0,0 l/m 0 min 0 min 0,0 UV-I 0 W/m 0,0 km/h (0 Bft)
22.04.2013 22:10 11,4 C 8,4 C 47 % 1016,5 hPa 0,0 l/m 0 min 0 min 0,0 UV-I 0 W/m 0,0 km/h (0 Bft)
22.04.2013 22:12 11,4 C 9,0 C 47 % 1016,5 hPa 0,0 l/m 0 min 0 min 0,0 UV-I 0 W/m 0,0 km/h (0 Bft)
22.04.2013 22:14 11,4 C 9,0 C 47 % 1016,5 hPa 0,0 l/m 0 min 0 min 0,0 UV-I 0 W/m 0,0 km/h (0 Bft)
22.04.2013 22:16 11,3 C 8,4 C 47 % 1016,5 hPa 0,0 l/m 0 min 0 min 0,0 UV-I 0 W/m 0,0 km/h (0 Bft)
22.04.2013 22:18 11,3 C 8,4 C 48 % 1016,6 hPa 0,0 l/m 0 min 0 min 0,0 UV-I 0 W/m 0,0 km/h (0 Bft)
22.04.2013 22:20 11,3 C 9,0 C 48 % 1016,6 hPa 0,0 l/m 0 min 0 min 0,0 UV-I 0 W/m 0,0 km/h (0 Bft)
22.04.2013 22:22 11,3 C 9,0 C 48 % 1016,6 hPa 0,0 l/m 0 min 0 min 0,0 UV-I 0 W/m 0,0 km/h (0 Bft)
22.04.2013 22:24 11,3 C 9,0 C 48 % 1016,7 hPa 0,0 l/m 0 min 0 min 0,0 UV-I 0 W/m 0,0 km/h (0 Bft)
22.04.2013 22:26 11,2 C 8,4 C 48 % 1016,6 hPa 0,0 l/m 0 min 0 min 0,0 UV-I 0 W/m 0,0 km/h (0 Bft)
22.04.2013 22:28 11,2 C 8,4 C 48 % 1016,7 hPa 0,0 l/m 0 min 0 min 0,0 UV-I 0 W/m 0,0 km/h (0 Bft)
22.04.2013 22:30 11,2 C 8,4 C 48 % 1016,6 hPa 0,0 l/m 0 min 0 min 0,0 UV-I 0 W/m 0,0 km/h (0 Bft)
22.04.2013 22:32 11,2 C 8,4 C 49 % 1016,7 hPa 0,0 l/m 0 min 0 min 0,0 UV-I 0 W/m 0,0 km/h (0 Bft)
22.04.2013 22:34 11,1 C 8,4 C 49 % 1016,8 hPa 0,0 l/m 0 min 0 min 0,0 UV-I 0 W/m 0,0 km/h (0 Bft)
22.04.2013 22:36 11,1 C 8,4 C 49 % 1016,8 hPa 0,0 l/m 0 min 0 min 0,0 UV-I 0 W/m 0,0 km/h (0 Bft)
22.04.2013 22:38 11,1 C 8,4 C 49 % 1016,7 hPa 0,0 l/m 0 min 0 min 0,0 UV-I 0 W/m 0,0 km/h (0 Bft)
22.04.2013 22:40 11,0 C 8,4 C 50 % 1016,6 hPa 0,0 l/m 0 min 0 min 0,0 UV-I 0 W/m 0,0 km/h (0 Bft)
22.04.2013 22:42 11,0 C 8,4 C 50 % 1016,6 hPa 0,0 l/m 0 min 0 min 0,0 UV-I 0 W/m 0,0 km/h (0 Bft)
22.04.2013 22:44 10,9 C 8,4 C 51 % 1016,6 hPa 0,0 l/m 0 min 0 min 0,0 UV-I 0 W/m 0,0 km/h (0 Bft)
22.04.2013 22:46 10,9 C 8,4 C 51 % 1016,7 hPa 0,0 l/m 0 min 0 min 0,0 UV-I 0 W/m 2,6 km/h (1 Bft)
22.04.2013 22:48 10,9 C 8,4 C 51 % 1016,8 hPa 0,0 l/m 0 min 0 min 0,0 UV-I 0 W/m 0,0 km/h (0 Bft)
22.04.2013 22:50 10,9 C 8,4 C 51 % 1016,8 hPa 0,0 l/m 0 min 0 min 0,0 UV-I 0 W/m 0,0 km/h (0 Bft)
22.04.2013 22:52 10,8 C 8,4 C 51 % 1016,8 hPa 0,0 l/m 0 min 0 min 0,0 UV-I 0 W/m 0,0 km/h (0 Bft)
22.04.2013 22:54 10,8 C 8,4 C 51 % 1016,7 hPa 0,0 l/m 0 min 0 min 0,0 UV-I 0 W/m 0,0 km/h (0 Bft)
22.04.2013 22:56 10,8 C 8,4 C 52 % 1016,8 hPa 0,0 l/m 0 min 0 min 0,0 UV-I 0 W/m 0,0 km/h (0 Bft)
22.04.2013 22:58 10,8 C 8,4 C 52 % 1016,8 hPa 0,0 l/m 0 min 0 min 0,0 UV-I 0 W/m 0,0 km/h (0 Bft)
22.04.2013 23:00 10,8 C 8,4 C 52 % 1016,8 hPa 0,0 l/m 0 min 0 min 0,0 UV-I 0 W/m 0,0 km/h (0 Bft)
22.04.2013 23:02 10,7 C 8,4 C 52 % 1016,8 hPa 0,0 l/m 0 min 0 min 0,0 UV-I 0 W/m 0,0 km/h (0 Bft)
22.04.2013 23:04 10,7 C 8,4 C 53 % 1016,8 hPa 0,0 l/m 0 min 0 min 0,0 UV-I 0 W/m 0,0 km/h (0 Bft)
22.04.2013 23:06 10,7 C 7,9 C 53 % 1016,9 hPa 0,0 l/m 0 min 0 min 0,0 UV-I 0 W/m 0,0 km/h (0 Bft)
22.04.2013 23:08 10,7 C 8,4 C 53 % 1017,0 hPa 0,0 l/m 0 min 0 min 0,0 UV-I 0 W/m 0,0 km/h (0 Bft)
22.04.2013 23:10 10,7 C 8,4 C 54 % 1016,9 hPa 0,0 l/m 0 min 0 min 0,0 UV-I 0 W/m 7,7 km/h (2 Bft)
22.04.2013 23:12 10,6 C 8,4 C 54 % 1017,0 hPa 0,0 l/m 0 min 0 min 0,0 UV-I 0 W/m 2,6 km/h (1 Bft)
22.04.2013 23:14 10,6 C 8,4 C 55 % 1017,0 hPa 0,0 l/m 0 min 0 min 0,0 UV-I 0 W/m 0,0 km/h (0 Bft)
22.04.2013 23:16 10,6 C 8,4 C 55 % 1017,0 hPa 0,0 l/m 0 min 0 min 0,0 UV-I 0 W/m 0,0 km/h (0 Bft)
22.04.2013 23:18 10,6 C 8,4 C 55 % 1017,1 hPa 0,0 l/m 0 min 0 min 0,0 UV-I 0 W/m 0,0 km/h (0 Bft)
22.04.2013 23:20 10,5 C 8,4 C 56 % 1017,1 hPa 0,0 l/m 0 min 0 min 0,0 UV-I 0 W/m 0,0 km/h (0 Bft)
22.04.2013 23:22 10,5 C 8,4 C 56 % 1017,1 hPa 0,0 l/m 0 min 0 min 0,0 UV-I 0 W/m 0,0 km/h (0 Bft)
22.04.2013 23:24 10,5 C 8,4 C 56 % 1017,1 hPa 0,0 l/m 0 min 0 min 0,0 UV-I 0 W/m 0,0 km/h (0 Bft)
22.04.2013 23:26 10,4 C 8,4 C 56 % 1017,2 hPa 0,0 l/m 0 min 0 min 0,0 UV-I 0 W/m 0,0 km/h (0 Bft)
22.04.2013 23:28 10,4 C 8,4 C 57 % 1017,2 hPa 0,0 l/m 0 min 0 min 0,0 UV-I 0 W/m 2,6 km/h (1 Bft)
22.04.2013 23:30 10,4 C 7,9 C 57 % 1017,2 hPa 0,0 l/m 0 min 0 min 0,0 UV-I 0 W/m 0,0 km/h (0 Bft)
22.04.2013 23:32 10,4 C 7,9 C 59 % 1017,2 hPa 0,0 l/m 0 min 0 min 0,0 UV-I 0 W/m 0,0 km/h (0 Bft)
22.04.2013 23:34 10,4 C 7,9 C 59 % 1017,2 hPa 0,0 l/m 0 min 0 min 0,0 UV-I 0 W/m 0,0 km/h (0 Bft)
22.04.2013 23:36 10,3 C 7,9 C 60 % 1017,2 hPa 0,0 l/m 0 min 0 min 0,0 UV-I 0 W/m 2,6 km/h (1 Bft)
22.04.2013 23:38 10,3 C 7,9 C 60 % 1017,1 hPa 0,0 l/m 0 min 0 min 0,0 UV-I 0 W/m 0,0 km/h (0 Bft)
22.04.2013 23:40 10,3 C 7,9 C 60 % 1017,2 hPa 0,0 l/m 0 min 0 min 0,0 UV-I 0 W/m 0,0 km/h (0 Bft)
22.04.2013 23:42 10,3 C 7,9 C 60 % 1017,1 hPa 0,0 l/m 0 min 0 min 0,0 UV-I 0 W/m 0,0 km/h (0 Bft)
22.04.2013 23:44 10,3 C 8,4 C 61 % 1017,1 hPa 0,0 l/m 0 min 0 min 0,0 UV-I 0 W/m 0,0 km/h (0 Bft)
22.04.2013 23:46 10,3 C 7,9 C 61 % 1017,2 hPa 0,0 l/m 0 min 0 min 0,0 UV-I 0 W/m 0,0 km/h (0 Bft)
22.04.2013 23:48 10,2 C 7,9 C 62 % 1017,2 hPa 0,0 l/m 0 min 0 min 0,0 UV-I 0 W/m 0,0 km/h (0 Bft)
22.04.2013 23:50 10,2 C 7,9 C 62 % 1017,1 hPa 0,0 l/m 0 min 0 min 0,0 UV-I 0 W/m 0,0 km/h (0 Bft)
22.04.2013 23:52 10,2 C 7,9 C 63 % 1017,1 hPa 0,0 l/m 0 min 0 min 0,0 UV-I 0 W/m 0,0 km/h (0 Bft)
22.04.2013 23:54 10,2 C 7,9 C 63 % 1017,1 hPa 0,0 l/m 0 min 0 min 0,0 UV-I 0 W/m 0,0 km/h (0 Bft)
22.04.2013 23:56 10,1 C 7,9 C 64 % 1017,2 hPa 0,0 l/m 0 min 0 min 0,0 UV-I 0 W/m 0,0 km/h (0 Bft)
22.04.2013 23:58 10,1 C 7,9 C 64 % 1017,1 hPa 0,0 l/m 0 min 0 min 0,0 UV-I 0 W/m 0,0 km/h (0 Bft)
_ Min-Zeit 07:40 06:40 17:10 16:56 - - - - - 00:00
Minimum _ 4,2 C 2,3 C 31 % 1015,3 hPa - - - - - 0,0 km/h (0 Bft)
_ Max-Zeit 16:44 13:04 07:58 09:28 00:00 09:26 00:00 13:44 13:56 00:30
Maximum _ 18,1 C 21,2 C 85 % 1017,9 hPa 0,0 l/m 2 min 0 min 3,2 UV-I 765 W/m 20,6 km/h
N-NW (4 Bft)
Durchschnitt _ 11,6 C 10,9 C 58 % 1016,6 hPa #0,0 l/m #8:30 h #0 min. 2,0 UV-I 379 W/m 4,0 km/h (1 Bft)
© 2013 W. Hausmann